Observation data for Fritch on 12/10/2018      Previous  Date       Current Mesonet Observations  Soil Data  Daily Summary Page  Observations in Plain Language
KFR1 100600Z 22006KT M00/M07 A3035 RMK A01 T10011068  RH  061%=      5-min Rain = 0
KFR1 100601Z 22005KT M00/M07 A3035 RMK A01 T10021068  RH  061%=      5-min Rain = 0
KFR1 100602Z 23006KT M00/M07 A3035 RMK A01 T10031068  RH  061%=      5-min Rain = 0
KFR1 100603Z 22005KT M00/M07 A3035 RMK A01 T10031067  RH  062%=      5-min Rain = 0
KFR1 100604Z 22004KT M00/M07 A3035 RMK A01 T10021068  RH  061%=      5-min Rain = 0
KFR1 100605Z 23005KT M00/M07 A3035 RMK A01 T10021068  RH  061%=      5-min Rain = 0
KFR1 100606Z 23005KT M00/M07 A3035 RMK A01 T10021068  RH  061%=      5-min Rain = 0
KFR1 100607Z 23004KT M00/M07 A3035 RMK A01 T10021068  RH  061%=      5-min Rain = 0
KFR1 100608Z 22004KT M00/M07 A3035 RMK A01 T10021068  RH  061%=      5-min Rain = 0
KFR1 100609Z 24004KT M00/M07 A3035 RMK A01 T10031068  RH  061%=      5-min Rain = 0
KFR1 100610Z 23004KT M00/M07 A3035 RMK A01 T10031068  RH  061%=      5-min Rain = 0
KFR1 100611Z 22004KT M00/M07 A3035 RMK A01 T10031068  RH  062%=      5-min Rain = 0
KFR1 100612Z 22004KT M00/M07 A3035 RMK A01 T10031068  RH  061%=      5-min Rain = 0
KFR1 100613Z 22005KT M00/M07 A3035 RMK A01 T10031069  RH  061%=      5-min Rain = 0
KFR1 100614Z 22005KT M00/M07 A3035 RMK A01 T10041068  RH  062%=      5-min Rain = 0
KFR1 100615Z 21005KT M00/M07 A3035 RMK A01 T10041068  RH  062%=      5-min Rain = 0
KFR1 100616Z 22005KT M00/M07 A3035 RMK A01 T10041068  RH  062%=      5-min Rain = 0
KFR1 100617Z 21004KT M00/M07 A3035 RMK A01 T10031067  RH  062%=      5-min Rain = 0
KFR1 100618Z 22005KT M00/M07 A3035 RMK A01 T10021067  RH  062%=      5-min Rain = 0
KFR1 100619Z 22003KT M00/M07 A3035 RMK A01 T10021067  RH  061%=      5-min Rain = 0
KFR1 100620Z 23004KT M00/M07 A3035 RMK A01 T10031068  RH  062%=      5-min Rain = 0
KFR1 100621Z 23005KT M00/M07 A3035 RMK A01 T10041068  RH  062%=      5-min Rain = 0
KFR1 100622Z 22005KT M00/M07 A3034 RMK A01 T10041067  RH  062%=      5-min Rain = 0
KFR1 100623Z 22005KT M00/M07 A3034 RMK A01 T10041068  RH  062%=      5-min Rain = 0
KFR1 100624Z 23005KT M00/M07 A3034 RMK A01 T10041068  RH  062%=      5-min Rain = 0
KFR1 100625Z 22006KT M00/M07 A3034 RMK A01 T10041068  RH  062%=      5-min Rain = 0
KFR1 100626Z 22006KT M00/M07 A3034 RMK A01 T10041068  RH  062%=      5-min Rain = 0
KFR1 100627Z 23006KT M01/M07 A3034 RMK A01 T10051068  RH  063%=      5-min Rain = 0
KFR1 100628Z 23006KT M01/M07 A3034 RMK A01 T10051068  RH  063%=      5-min Rain = 0
KFR1 100629Z 23005KT M01/M07 A3034 RMK A01 T10051068  RH  062%=      5-min Rain = 0
KFR1 100630Z 23006KT M01/M07 A3034 RMK A01 T10051068  RH  062%=      5-min Rain = 0
KFR1 100631Z 23005KT M01/M07 A3034 RMK A01 T10051068  RH  062%=      5-min Rain = 0
KFR1 100632Z 23005KT M01/M07 A3034 RMK A01 T10051068  RH  062%=      5-min Rain = 0
KFR1 100633Z 23005KT M01/M07 A3034 RMK A01 T10051068  RH  062%=      5-min Rain = 0
KFR1 100634Z 23005KT M01/M07 A3034 RMK A01 T10051068  RH  062%=      5-min Rain = 0
KFR1 100635Z 23005KT M00/M07 A3034 RMK A01 T10041068  RH  062%=      5-min Rain = 0
KFR1 100636Z 23005KT M00/M07 A3034 RMK A01 T10041069  RH  062%=      5-min Rain = 0
KFR1 100637Z 23007KT M00/M07 A3034 RMK A01 T10041069  RH  062%=      5-min Rain = 0
KFR1 100638Z 23006KT M01/M07 A3034 RMK A01 T10051068  RH  062%=      5-min Rain = 0
KFR1 100639Z 24006KT M00/M07 A3034 RMK A01 T10041068  RH  062%=      5-min Rain = 0
KFR1 100640Z 24006KT M01/M07 A3034 RMK A01 T10051068  RH  062%=      5-min Rain = 0
KFR1 100641Z 24005KT M01/M07 A3034 RMK A01 T10051068  RH  062%=      5-min Rain = 0
KFR1 100642Z 24006KT M01/M07 A3034 RMK A01 T10061069  RH  062%=      5-min Rain = 0
KFR1 100643Z 25005KT M01/M07 A3034 RMK A01 T10061069  RH  062%=      5-min Rain = 0
KFR1 100644Z 24006KT M01/M07 A3034 RMK A01 T10061069  RH  062%=      5-min Rain = 0
KFR1 100645Z 24005KT M01/M07 A3034 RMK A01 T10061069  RH  062%=      5-min Rain = 0
KFR1 100646Z 23005KT M01/M07 A3034 RMK A01 T10071069  RH  063%=      5-min Rain = 0
KFR1 100647Z 23005KT M01/M07 A3034 RMK A01 T10071069  RH  063%=      5-min Rain = 0
KFR1 100648Z 23005KT M01/M07 A3034 RMK A01 T10061069  RH  063%=      5-min Rain = 0
KFR1 100649Z 23005KT M01/M07 A3034 RMK A01 T10061069  RH  062%=      5-min Rain = 0
KFR1 100650Z 22006KT M01/M07 A3034 RMK A01 T10071070  RH  062%=      5-min Rain = 0
KFR1 100651Z 22005KT M01/M07 A3034 RMK A01 T10071069  RH  063%=      5-min Rain = 0
KFR1 100652Z 22006KT M01/M07 A3034 RMK A01 T10071068  RH  063%=      5-min Rain = 0
KFR1 100653Z 22005KT M01/M07 A3034 RMK A01 T10061068  RH  063%=      5-min Rain = 0
KFR1 100654Z 23006KT M01/M07 A3034 RMK A01 T10051068  RH  063%=      5-min Rain = 0
KFR1 100655Z 22007KT M01/M07 A3034 RMK A01 T10051068  RH  062%=      5-min Rain = 0
KFR1 100656Z 22007KT M01/M07 A3034 RMK A01 T10051068  RH  063%=      5-min Rain = 0
KFR1 100657Z 22006KT M01/M07 A3034 RMK A01 T10061068  RH  063%=      5-min Rain = 0
KFR1 100658Z 22006KT M01/M07 A3034 RMK A01 T10061068  RH  063%=      5-min Rain = 0
KFR1 100659Z 21006KT M01/M07 A3034 RMK A01 T10051068  RH  063%=      5-min Rain = 0
KFR1 100700Z 22005KT M00/M07 A3034 RMK A01 T10041068  RH  062%=      5-min Rain = 0
KFR1 100701Z 22005KT M00/M07 A3034 RMK A01 T10041068  RH  062%=      5-min Rain = 0
KFR1 100702Z 21005KT M00/M07 A3033 RMK A01 T10041069  RH  062%=      5-min Rain = 0
KFR1 100703Z 22005KT M00/M07 A3033 RMK A01 T10041069  RH  061%=      5-min Rain = 0
KFR1 100704Z 22005KT M00/M07 A3033 RMK A01 T10031069  RH  061%=      5-min Rain = 0
KFR1 100705Z 22005KT M00/M07 A3033 RMK A01 T10031069  RH  061%=      5-min Rain = 0
KFR1 100706Z 22005KT M00/M07 A3033 RMK A01 T10031069  RH  061%=      5-min Rain = 0
KFR1 100707Z 22004KT M00/M07 A3033 RMK A01 T10041069  RH  061%=      5-min Rain = 0
KFR1 100708Z 22004KT M01/M07 A3033 RMK A01 T10051070  RH  062%=      5-min Rain = 0
KFR1 100709Z 22003KT M01/M07 A3033 RMK A01 T10061070  RH  062%=      5-min Rain = 0
KFR1 100710Z 22004KT M01/M07 A3033 RMK A01 T10061070  RH  062%=      5-min Rain = 0
KFR1 100711Z 22003KT M01/M07 A3033 RMK A01 T10061070  RH  062%=      5-min Rain = 0
KFR1 100712Z 22003KT M01/M07 A3033 RMK A01 T10061070  RH  062%=      5-min Rain = 0
KFR1 100713Z 22003KT M01/M07 A3033 RMK A01 T10071071  RH  062%=      5-min Rain = 0
KFR1 100714Z 22003KT M01/M07 A3033 RMK A01 T10081070  RH  062%=      5-min Rain = 0
KFR1 100715Z 22004KT M01/M07 A3033 RMK A01 T10081071  RH  063%=      5-min Rain = 0
KFR1 100716Z 21004KT M01/M07 A3033 RMK A01 T10081070  RH  063%=      5-min Rain = 0
KFR1 100717Z 22005KT M01/M07 A3033 RMK A01 T10081070  RH  063%=      5-min Rain = 0
KFR1 100718Z 22005KT M01/M07 A3033 RMK A01 T10081070  RH  063%=      5-min Rain = 0
KFR1 100719Z 22004KT M01/M07 A3033 RMK A01 T10091071  RH  063%=      5-min Rain = 0
KFR1 100720Z 21004KT M01/M07 A3033 RMK A01 T10111071  RH  063%=      5-min Rain = 0
KFR1 100721Z 21005KT M01/M07 A3033 RMK A01 T10121071  RH  064%=      5-min Rain = 0
KFR1 100722Z 21005KT M01/M07 A3033 RMK A01 T10111071  RH  064%=      5-min Rain = 0
KFR1 100723Z 21005KT M01/M07 A3032 RMK A01 T10111071  RH  064%=      5-min Rain = 0
KFR1 100724Z 21005KT M01/M07 A3032 RMK A01 T10121072  RH  064%=      5-min Rain = 0
KFR1 100725Z 21005KT M01/M07 A3032 RMK A01 T10131071  RH  065%=      5-min Rain = 0
KFR1 100726Z 22005KT M01/M07 A3032 RMK A01 T10141071  RH  065%=      5-min Rain = 0
KFR1 100727Z 21005KT M01/M07 A3032 RMK A01 T10141071  RH  065%=      5-min Rain = 0
KFR1 100728Z 21004KT M01/M07 A3032 RMK A01 T10141071  RH  065%=      5-min Rain = 0
KFR1 100729Z 21004KT M01/M07 A3032 RMK A01 T10141071  RH  065%=      5-min Rain = 0
KFR1 100730Z 22005KT M02/M07 A3032 RMK A01 T10151071  RH  065%=      5-min Rain = 0
KFR1 100731Z 22005KT M02/M07 A3032 RMK A01 T10151071  RH  065%=      5-min Rain = 0
KFR1 100732Z 22005KT M02/M07 A3032 RMK A01 T10161072  RH  066%=      5-min Rain = 0
KFR1 100733Z 22005KT M02/M07 A3032 RMK A01 T10171072  RH  066%=      5-min Rain = 0
KFR1 100734Z 22005KT M02/M07 A3032 RMK A01 T10181072  RH  066%=      5-min Rain = 0
KFR1 100735Z 22004KT M02/M07 A3032 RMK A01 T10191072  RH  067%=      5-min Rain = 0
KFR1 100736Z 22005KT M02/M07 A3032 RMK A01 T10191072  RH  067%=      5-min Rain = 0
KFR1 100737Z 22006KT M02/M07 A3032 RMK A01 T10191072  RH  067%=      5-min Rain = 0
KFR1 100738Z 22007KT M02/M07 A3032 RMK A01 T10191071  RH  067%=      5-min Rain = 0
KFR1 100739Z 22006KT M02/M07 A3032 RMK A01 T10181071  RH  067%=      5-min Rain = 0
KFR1 100740Z 22006KT M02/M07 A3032 RMK A01 T10181071  RH  067%=      5-min Rain = 0
KFR1 100741Z 23006KT M02/M07 A3032 RMK A01 T10181072  RH  067%=      5-min Rain = 0
KFR1 100742Z 23005KT M02/M07 A3032 RMK A01 T10171071  RH  067%=      5-min Rain = 0
KFR1 100743Z 23005KT M02/M07 A3032 RMK A01 T10161071  RH  066%=      5-min Rain = 0
KFR1 100744Z 23005KT M02/M07 A3032 RMK A01 T10161071  RH  066%=      5-min Rain = 0
KFR1 100745Z 23005KT M02/M07 A3032 RMK A01 T10161071  RH  066%=      5-min Rain = 0
KFR1 100746Z 23005KT M02/M07 A3032 RMK A01 T10151071  RH  066%=      5-min Rain = 0
KFR1 100747Z 23005KT M02/M07 A3032 RMK A01 T10151071  RH  066%=      5-min Rain = 0
KFR1 100748Z 23006KT M02/M07 A3032 RMK A01 T10151071  RH  066%=      5-min Rain = 0
KFR1 100749Z 22006KT M02/M07 A3032 RMK A01 T10151071  RH  065%=      5-min Rain = 0
KFR1 100750Z 23005KT M02/M07 A3032 RMK A01 T10151071  RH  066%=      5-min Rain = 0
KFR1 100751Z 22007KT M02/M07 A3032 RMK A01 T10151071  RH  066%=      5-min Rain = 0
KFR1 100752Z 22006KT M02/M07 A3032 RMK A01 T10161071  RH  066%=      5-min Rain = 0
KFR1 100753Z 22007KT M01/M07 A3032 RMK A01 T10141070  RH  066%=      5-min Rain = 0
KFR1 100754Z 22006KT M01/M07 A3032 RMK A01 T10131069  RH  065%=      5-min Rain = 0
KFR1 100755Z 22007KT M01/M07 A3032 RMK A01 T10121070  RH  065%=      5-min Rain = 0
KFR1 100756Z 22006KT M01/M07 A3032 RMK A01 T10121070  RH  065%=      5-min Rain = 0
KFR1 100757Z 22006KT M01/M07 A3032 RMK A01 T10111070  RH  065%=      5-min Rain = 0
KFR1 100758Z 22005KT M01/M07 A3032 RMK A01 T10111070  RH  065%=      5-min Rain = 0
KFR1 100759Z 22005KT M01/M07 A3032 RMK A01 T10121070  RH  064%=      5-min Rain = 0
KFR1 100800Z 22005KT M01/M07 A3032 RMK A01 T10131071  RH  065%=      5-min Rain = 0
KFR1 100801Z 23004KT M01/M07 A3032 RMK A01 T10131071  RH  065%=      5-min Rain = 0
KFR1 100802Z 22003KT M01/M07 A3032 RMK A01 T10141071  RH  065%=      5-min Rain = 0
KFR1 100803Z 23004KT M01/M07 A3032 RMK A01 T10131070  RH  065%=      5-min Rain = 0
KFR1 100804Z 23004KT M01/M07 A3032 RMK A01 T10131071  RH  065%=      5-min Rain = 0
KFR1 100805Z 22005KT M01/M07 A3032 RMK A01 T10131071  RH  065%=      5-min Rain = 0
KFR1 100806Z 23004KT M01/M07 A3032 RMK A01 T10141071  RH  065%=      5-min Rain = 0
KFR1 100807Z 24004KT M01/M07 A3033 RMK A01 T10131071  RH  065%=      5-min Rain = 0
KFR1 100808Z 25003KT M01/M07 A3033 RMK A01 T10141071  RH  065%=      5-min Rain = 0
KFR1 100809Z 26002KT M02/M07 A3033 RMK A01 T10151072  RH  065%=      5-min Rain = 0
KFR1 100810Z 29001KT M02/M07 A3033 RMK A01 T10161071  RH  066%=      5-min Rain = 0
KFR1 100811Z 26002KT M02/M07 A3033 RMK A01 T10181070  RH  068%=      5-min Rain = 0
KFR1 100812Z 28002KT M02/M07 A3033 RMK A01 T10201070  RH  069%=      5-min Rain = 0
KFR1 100813Z 24002KT M02/M07 A3033 RMK A01 T10211069  RH  070%=      5-min Rain = 0
KFR1 100814Z 23002KT M02/M07 A3033 RMK A01 T10241070  RH  070%=      5-min Rain = 0
KFR1 100815Z 23003KT M03/M07 A3033 RMK A01 T10251071  RH  071%=      5-min Rain = 0
KFR1 100816Z 23003KT M03/M07 A3033 RMK A01 T10261071  RH  071%=      5-min Rain = 0
KFR1 100817Z 24004KT M03/M07 A3033 RMK A01 T10271071  RH  072%=      5-min Rain = 0
KFR1 100818Z 24005KT M03/M07 A3033 RMK A01 T10281072  RH  072%=      5-min Rain = 0
KFR1 100819Z 25004KT M03/M07 A3033 RMK A01 T10271071  RH  071%=      5-min Rain = 0
KFR1 100820Z 24004KT M03/M07 A3033 RMK A01 T10251070  RH  071%=      5-min Rain = 0
KFR1 100821Z 24004KT M03/M07 A3033 RMK A01 T10251070  RH  071%=      5-min Rain = 0
KFR1 100822Z 23005KT M03/M07 A3033 RMK A01 T10261070  RH  071%=      5-min Rain = 0
KFR1 100823Z 23005KT M03/M07 A3033 RMK A01 T10261070  RH  072%=      5-min Rain = 0
KFR1 100824Z 23005KT M03/M07 A3033 RMK A01 T10261070  RH  072%=      5-min Rain = 0
KFR1 100825Z 23005KT M03/M07 A3033 RMK A01 T10261071  RH  071%=      5-min Rain = 0
KFR1 100826Z 24005KT M03/M07 A3033 RMK A01 T10261071  RH  071%=      5-min Rain = 0
KFR1 100827Z 24005KT M03/M07 A3033 RMK A01 T10271071  RH  072%=      5-min Rain = 0
KFR1 100828Z 25005KT M03/M07 A3033 RMK A01 T10261071  RH  071%=      5-min Rain = 0
KFR1 100829Z 24005KT M02/M07 A3033 RMK A01 T10241071  RH  070%=      5-min Rain = 0
KFR1 100830Z 24005KT M02/M07 A3033 RMK A01 T10231071  RH  070%=      5-min Rain = 0
KFR1 100831Z 23005KT M02/M07 A3033 RMK A01 T10241073  RH  069%=      5-min Rain = 0
KFR1 100832Z 23005KT M03/M08 A3033 RMK A01 T10261075  RH  069%=      5-min Rain = 0
KFR1 100833Z 23005KT M03/M07 A3033 RMK A01 T10281074  RH  070%=      5-min Rain = 0
KFR1 100834Z 23005KT M03/M07 A3033 RMK A01 T10281074  RH  071%=      5-min Rain = 0
KFR1 100835Z 23005KT M03/M07 A3033 RMK A01 T10281073  RH  071%=      5-min Rain = 0
KFR1 100836Z 23006KT M03/M07 A3033 RMK A01 T10281073  RH  071%=      5-min Rain = 0
KFR1 100837Z 22006KT M03/M07 A3033 RMK A01 T10281073  RH  071%=      5-min Rain = 0
KFR1 100838Z 23006KT M03/M07 A3033 RMK A01 T10271072  RH  071%=      5-min Rain = 0
KFR1 100839Z 22006KT M03/M07 A3033 RMK A01 T10271073  RH  071%=      5-min Rain = 0
KFR1 100840Z 22006KT M03/M07 A3033 RMK A01 T10261072  RH  071%=      5-min Rain = 0
KFR1 100841Z 22006KT M03/M07 A3033 RMK A01 T10251071  RH  071%=      5-min Rain = 0
KFR1 100842Z 22006KT M02/M07 A3033 RMK A01 T10241070  RH  070%=      5-min Rain = 0
KFR1 100843Z 22006KT M02/M07 A3033 RMK A01 T10231070  RH  070%=      5-min Rain = 0
KFR1 100844Z 22006KT M02/M07 A3033 RMK A01 T10211070  RH  069%=      5-min Rain = 0
KFR1 100845Z 22006KT M02/M07 A3033 RMK A01 T10211070  RH  069%=      5-min Rain = 0
KFR1 100846Z 22005KT M02/M07 A3033 RMK A01 T10201071  RH  068%=      5-min Rain = 0
KFR1 100847Z 21005KT M02/M07 A3033 RMK A01 T10211073  RH  068%=      5-min Rain = 0
KFR1 100848Z 21005KT M02/M07 A3033 RMK A01 T10231074  RH  068%=      5-min Rain = 0
KFR1 100849Z 20005KT M03/M08 A3033 RMK A01 T10261075  RH  069%=      5-min Rain = 0
KFR1 100850Z 19005KT M03/M08 A3033 RMK A01 T10271075  RH  070%=      5-min Rain = 0
KFR1 100851Z 20005KT M03/M08 A3033 RMK A01 T10291075  RH  071%=      5-min Rain = 0
KFR1 100852Z 19005KT M03/M07 A3033 RMK A01 T10291074  RH  071%=      5-min Rain = 0
KFR1 100853Z 20005KT M03/M07 A3033 RMK A01 T10291074  RH  071%=      5-min Rain = 0
KFR1 100854Z 20005KT M03/M07 A3033 RMK A01 T10291073  RH  071%=      5-min Rain = 0
KFR1 100855Z 20005KT M03/M07 A3033 RMK A01 T10281072  RH  071%=      5-min Rain = 0
KFR1 100856Z 21005KT M03/M07 A3033 RMK A01 T10271072  RH  071%=      5-min Rain = 0
KFR1 100857Z 21004KT M03/M07 A3033 RMK A01 T10251072  RH  070%=      5-min Rain = 0
KFR1 100858Z 21005KT M02/M07 A3033 RMK A01 T10241072  RH  070%=      5-min Rain = 0
KFR1 100859Z 22005KT M02/M07 A3033 RMK A01 T10241072  RH  070%=      5-min Rain = 0
KFR1 100900Z 21004KT M02/M07 A3033 RMK A01 T10241072  RH  069%=      5-min Rain = 0
KFR1 100901Z 21004KT M02/M07 A3033 RMK A01 T10231072  RH  069%=      5-min Rain = 0
KFR1 100902Z 21005KT M02/M07 A3033 RMK A01 T10231073  RH  069%=      5-min Rain = 0
KFR1 100903Z 21004KT M02/M07 A3033 RMK A01 T10231073  RH  069%=      5-min Rain = 0
KFR1 100904Z 21004KT M02/M07 A3033 RMK A01 T10221071  RH  069%=      5-min Rain = 0
KFR1 100905Z 20005KT M02/M07 A3033 RMK A01 T10211072  RH  068%=      5-min Rain = 0
KFR1 100906Z 20005KT M02/M07 A3033 RMK A01 T10201072  RH  068%=      5-min Rain = 0
KFR1 100907Z 21003KT M02/M07 A3033 RMK A01 T10201072  RH  068%=      5-min Rain = 0
KFR1 100908Z 21004KT M02/M07 A3033 RMK A01 T10201072  RH  068%=      5-min Rain = 0
KFR1 100909Z 20004KT M02/M07 A3033 RMK A01 T10221073  RH  068%=      5-min Rain = 0
KFR1 100910Z 20003KT M02/M07 A3033 RMK A01 T10231073  RH  068%=      5-min Rain = 0
KFR1 100911Z 19003KT M02/M07 A3033 RMK A01 T10241074  RH  068%=      5-min Rain = 0
KFR1 100912Z 21004KT M03/M07 A3033 RMK A01 T10251074  RH  069%=      5-min Rain = 0
KFR1 100913Z 20004KT M03/M07 A3033 RMK A01 T10261074  RH  069%=      5-min Rain = 0
KFR1 100914Z 19004KT M03/M07 A3033 RMK A01 T10251073  RH  069%=      5-min Rain = 0
KFR1 100915Z 21004KT M03/M07 A3033 RMK A01 T10261074  RH  069%=      5-min Rain = 0
KFR1 100916Z 21004KT M03/M07 A3033 RMK A01 T10261074  RH  070%=      5-min Rain = 0
KFR1 100917Z 21004KT M03/M07 A3033 RMK A01 T10261074  RH  070%=      5-min Rain = 0
KFR1 100918Z 21004KT M03/M07 A3033 RMK A01 T10261074  RH  070%=      5-min Rain = 0
KFR1 100919Z 21003KT M03/M07 A3033 RMK A01 T10261073  RH  070%=      5-min Rain = 0
KFR1 100920Z 21004KT M03/M07 A3033 RMK A01 T10271074  RH  070%=      5-min Rain = 0
KFR1 100921Z 21004KT M03/M07 A3033 RMK A01 T10261073  RH  070%=      5-min Rain = 0
KFR1 100922Z 21004KT M03/M07 A3033 RMK A01 T10261074  RH  070%=      5-min Rain = 0
KFR1 100923Z 21004KT M03/M07 A3033 RMK A01 T10271074  RH  070%=      5-min Rain = 0
KFR1 100924Z 22004KT M03/M07 A3033 RMK A01 T10261074  RH  070%=      5-min Rain = 0
KFR1 100925Z 22004KT M03/M07 A3033 RMK A01 T10261074  RH  070%=      5-min Rain = 0
KFR1 100926Z 21003KT M03/M07 A3033 RMK A01 T10261073  RH  070%=      5-min Rain = 0
KFR1 100927Z 21003KT M03/M07 A3033 RMK A01 T10251073  RH  070%=      5-min Rain = 0
KFR1 100928Z 22004KT M02/M07 A3033 RMK A01 T10241073  RH  069%=      5-min Rain = 0
KFR1 100929Z 21004KT M02/M07 A3033 RMK A01 T10241073  RH  069%=      5-min Rain = 0
KFR1 100930Z 21004KT M02/M07 A3033 RMK A01 T10241073  RH  069%=      5-min Rain = 0
KFR1 100931Z 21003KT M02/M07 A3033 RMK A01 T10231073  RH  069%=      5-min Rain = 0
KFR1 100932Z 21004KT M02/M07 A3033 RMK A01 T10231073  RH  068%=      5-min Rain = 0
KFR1 100933Z 22004KT M02/M07 A3033 RMK A01 T10231073  RH  068%=      5-min Rain = 0
KFR1 100934Z 21004KT M02/M07 A3033 RMK A01 T10231073  RH  069%=      5-min Rain = 0
KFR1 100935Z 21003KT M02/M07 A3033 RMK A01 T10231073  RH  068%=      5-min Rain = 0
KFR1 100936Z 21004KT M02/M07 A3033 RMK A01 T10231073  RH  068%=      5-min Rain = 0
KFR1 100937Z 21004KT M02/M07 A3033 RMK A01 T10241074  RH  068%=      5-min Rain = 0
KFR1 100938Z 21004KT M03/M08 A3033 RMK A01 T10251075  RH  069%=      5-min Rain = 0
KFR1 100939Z 21004KT M03/M07 A3033 RMK A01 T10251074  RH  069%=      5-min Rain = 0
KFR1 100940Z 22004KT M03/M07 A3032 RMK A01 T10251073  RH  069%=      5-min Rain = 0
KFR1 100941Z 21004KT M02/M07 A3032 RMK A01 T10241073  RH  069%=      5-min Rain = 0
KFR1 100942Z 21004KT M02/M07 A3032 RMK A01 T10231073  RH  069%=      5-min Rain = 0
KFR1 100943Z 21004KT M02/M07 A3032 RMK A01 T10221072  RH  068%=      5-min Rain = 0
KFR1 100944Z 21004KT M02/M07 A3032 RMK A01 T10211072  RH  068%=      5-min Rain = 0
KFR1 100945Z 21004KT M02/M07 A3032 RMK A01 T10201072  RH  067%=      5-min Rain = 0
KFR1 100946Z 21004KT M02/M07 A3032 RMK A01 T10191072  RH  067%=      5-min Rain = 0
KFR1 100947Z 21004KT M02/M07 A3032 RMK A01 T10191072  RH  067%=      5-min Rain = 0
KFR1 100948Z 21004KT M02/M07 A3032 RMK A01 T10191072  RH  067%=      5-min Rain = 0
KFR1 100949Z 21004KT M02/M07 A3032 RMK A01 T10191072  RH  067%=      5-min Rain = 0
KFR1 100950Z 21004KT M02/M07 A3032 RMK A01 T10201072  RH  067%=      5-min Rain = 0
KFR1 100951Z 21004KT M02/M07 A3032 RMK A01 T10201072  RH  067%=      5-min Rain = 0
KFR1 100952Z 21004KT M02/M07 A3032 RMK A01 T10201073  RH  067%=      5-min Rain = 0
KFR1 100953Z 21003KT M02/M07 A3032 RMK A01 T10201073  RH  067%=      5-min Rain = 0
KFR1 100954Z 21004KT M02/M07 A3032 RMK A01 T10201073  RH  067%=      5-min Rain = 0
KFR1 100955Z 21004KT M02/M07 A3032 RMK A01 T10211073  RH  068%=      5-min Rain = 0
KFR1 100956Z 22004KT M02/M07 A3032 RMK A01 T10221074  RH  068%=      5-min Rain = 0
KFR1 100957Z 22004KT M02/M07 A3032 RMK A01 T10231074  RH  068%=      5-min Rain = 0
KFR1 100958Z 22004KT M02/M07 A3032 RMK A01 T10241074  RH  069%=      5-min Rain = 0
KFR1 100959Z 22004KT M02/M07 A3032 RMK A01 T10241074  RH  069%=      5-min Rain = 0
KFR1 101000Z 22004KT M03/M07 A3032 RMK A01 T10251074  RH  069%=      5-min Rain = 0
KFR1 101001Z 22004KT M03/M08 A3032 RMK A01 T10271075  RH  069%=      5-min Rain = 0
KFR1 101002Z 22004KT M03/M08 A3032 RMK A01 T10281076  RH  070%=      5-min Rain = 0
KFR1 101003Z 22005KT M03/M08 A3032 RMK A01 T10291075  RH  070%=      5-min Rain = 0
KFR1 101004Z 22005KT M03/M07 A3032 RMK A01 T10261072  RH  071%=      5-min Rain = 0
KFR1 101005Z 22005KT M02/M07 A3032 RMK A01 T10241071  RH  070%=      5-min Rain = 0
KFR1 101006Z 23004KT M02/M07 A3032 RMK A01 T10221071  RH  069%=      5-min Rain = 0
KFR1 101007Z 23004KT M02/M07 A3033 RMK A01 T10211072  RH  068%=      5-min Rain = 0
KFR1 101008Z 23005KT M02/M07 A3032 RMK A01 T10211072  RH  068%=      5-min Rain = 0
KFR1 101009Z 22004KT M02/M07 A3032 RMK A01 T10201072  RH  068%=      5-min Rain = 0
KFR1 101010Z 22004KT M02/M07 A3032 RMK A01 T10201072  RH  067%=      5-min Rain = 0
KFR1 101011Z 23003KT M02/M07 A3032 RMK A01 T10191072  RH  067%=      5-min Rain = 0
KFR1 101012Z 21003KT M02/M07 A3032 RMK A01 T10191072  RH  067%=      5-min Rain = 0
KFR1 101013Z 22003KT M02/M07 A3032 RMK A01 T10191072  RH  067%=      5-min Rain = 0
KFR1 101014Z 20003KT M02/M07 A3032 RMK A01 T10201073  RH  067%=      5-min Rain = 0
KFR1 101015Z 21005KT M02/M07 A3032 RMK A01 T10211074  RH  067%=      5-min Rain = 0
KFR1 101016Z 20004KT M02/M07 A3032 RMK A01 T10221073  RH  068%=      5-min Rain = 0
KFR1 101017Z 20004KT M02/M07 A3032 RMK A01 T10221073  RH  068%=      5-min Rain = 0
KFR1 101018Z 20004KT M02/M07 A3032 RMK A01 T10211073  RH  068%=      5-min Rain = 0
KFR1 101019Z 21005KT M02/M07 A3032 RMK A01 T10211074  RH  067%=      5-min Rain = 0
KFR1 101020Z 20005KT M02/M07 A3032 RMK A01 T10221073  RH  068%=      5-min Rain = 0
KFR1 101021Z 20005KT M02/M07 A3032 RMK A01 T10211073  RH  068%=      5-min Rain = 0
KFR1 101022Z 21005KT M02/M07 A3032 RMK A01 T10211073  RH  068%=      5-min Rain = 0
KFR1 101023Z 20005KT M02/M07 A3032 RMK A01 T10211073  RH  068%=      5-min Rain = 0
KFR1 101024Z 20005KT M02/M07 A3032 RMK A01 T10211073  RH  067%=      5-min Rain = 0
KFR1 101025Z 20005KT M02/M07 A3032 RMK A01 T10231074  RH  068%=      5-min Rain = 0
KFR1 101026Z 20005KT M02/M07 A3032 RMK A01 T10241074  RH  068%=      5-min Rain = 0
KFR1 101027Z 21004KT M03/M07 A3032 RMK A01 T10251074  RH  069%=      5-min Rain = 0
KFR1 101028Z 21005KT M03/M07 A3032 RMK A01 T10261074  RH  069%=      5-min Rain = 0
KFR1 101029Z 21004KT M03/M07 A3032 RMK A01 T10261074  RH  070%=      5-min Rain = 0
KFR1 101030Z 21004KT M03/M07 A3032 RMK A01 T10261074  RH  070%=      5-min Rain = 0
KFR1 101031Z 20004KT M03/M07 A3032 RMK A01 T10271074  RH  070%=      5-min Rain = 0
KFR1 101032Z 20004KT M03/M08 A3032 RMK A01 T10281075  RH  070%=      5-min Rain = 0
KFR1 101033Z 20004KT M03/M08 A3032 RMK A01 T10291076  RH  070%=      5-min Rain = 0
KFR1 101034Z 20004KT M03/M08 A3032 RMK A01 T10301075  RH  071%=      5-min Rain = 0
KFR1 101035Z 20004KT M03/M08 A3032 RMK A01 T10301075  RH  071%=      5-min Rain = 0
KFR1 101036Z 20004KT M03/M08 A3032 RMK A01 T10301075  RH  071%=      5-min Rain = 0
KFR1 101037Z 20004KT M03/M08 A3032 RMK A01 T10291075  RH  071%=      5-min Rain = 0
KFR1 101038Z 21004KT M03/M08 A3032 RMK A01 T10291075  RH  071%=      5-min Rain = 0
KFR1 101039Z 21004KT M03/M08 A3032 RMK A01 T10291075  RH  071%=      5-min Rain = 0
KFR1 101040Z 21004KT M03/M07 A3032 RMK A01 T10281074  RH  071%=      5-min Rain = 0
KFR1 101041Z 22004KT M03/M07 A3032 RMK A01 T10281074  RH  070%=      5-min Rain = 0
KFR1 101042Z 22004KT M03/M07 A3032 RMK A01 T10271074  RH  070%=      5-min Rain = 0
KFR1 101043Z 22004KT M03/M07 A3032 RMK A01 T10271074  RH  070%=      5-min Rain = 0
KFR1 101044Z 23005KT M03/M08 A3032 RMK A01 T10271075  RH  070%=      5-min Rain = 0
KFR1 101045Z 22004KT M03/M07 A3032 RMK A01 T10271074  RH  070%=      5-min Rain = 0
KFR1 101046Z 22004KT M03/M07 A3032 RMK A01 T10281074  RH  070%=      5-min Rain = 0
KFR1 101047Z 22004KT M03/M07 A3032 RMK A01 T10281074  RH  070%=      5-min Rain = 0
KFR1 101048Z 22004KT M03/M07 A3032 RMK A01 T10271074  RH  070%=      5-min Rain = 0
KFR1 101049Z 21004KT M03/M07 A3032 RMK A01 T10271074  RH  070%=      5-min Rain = 0
KFR1 101050Z 22004KT M03/M08 A3032 RMK A01 T10271075  RH  070%=      5-min Rain = 0
KFR1 101051Z 22005KT M03/M08 A3032 RMK A01 T10271075  RH  070%=      5-min Rain = 0
KFR1 101052Z 22004KT M03/M08 A3032 RMK A01 T10271075  RH  070%=      5-min Rain = 0
KFR1 101053Z 23005KT M03/M08 A3032 RMK A01 T10281075  RH  070%=      5-min Rain = 0
KFR1 101054Z 22005KT M03/M08 A3032 RMK A01 T10291075  RH  070%=      5-min Rain = 0
KFR1 101055Z 23005KT M03/M08 A3032 RMK A01 T10291075  RH  071%=      5-min Rain = 0
KFR1 101056Z 23005KT M03/M08 A3032 RMK A01 T10301075  RH  071%=      5-min Rain = 0
KFR1 101057Z 23005KT M03/M08 A3031 RMK A01 T10311076  RH  071%=      5-min Rain = 0
KFR1 101058Z 23004KT M03/M08 A3031 RMK A01 T10311075  RH  072%=      5-min Rain = 0
KFR1 101059Z 21003KT M03/M08 A3031 RMK A01 T10311075  RH  072%=      5-min Rain = 0
KFR1 101100Z 21004KT M03/M08 A3031 RMK A01 T10311075  RH  072%=      5-min Rain = 0
KFR1 101101Z 21004KT M03/M08 A3031 RMK A01 T10311076  RH  071%=      5-min Rain = 0
KFR1 101102Z 21005KT M03/M08 A3031 RMK A01 T10301075  RH  071%=      5-min Rain = 0
KFR1 101103Z 22005KT M03/M07 A3031 RMK A01 T10291074  RH  071%=      5-min Rain = 0
KFR1 101104Z 22004KT M03/M07 A3031 RMK A01 T10291074  RH  071%=      5-min Rain = 0
KFR1 101105Z 22005KT M03/M08 A3031 RMK A01 T10291075  RH  071%=      5-min Rain = 0
KFR1 101106Z 22005KT M03/M08 A3031 RMK A01 T10291075  RH  071%=      5-min Rain = 0
KFR1 101107Z 22005KT M03/M08 A3031 RMK A01 T10301075  RH  071%=      5-min Rain = 0
KFR1 101108Z 22005KT M03/M07 A3031 RMK A01 T10291074  RH  071%=      5-min Rain = 0
KFR1 101109Z 22005KT M03/M08 A3031 RMK A01 T10291075  RH  070%=      5-min Rain = 0
KFR1 101110Z 21005KT M03/M08 A3031 RMK A01 T10301076  RH  071%=      5-min Rain = 0
KFR1 101111Z 22004KT M03/M08 A3031 RMK A01 T10301075  RH  071%=      5-min Rain = 0
KFR1 101112Z 21004KT M03/M07 A3031 RMK A01 T10291074  RH  071%=      5-min Rain = 0
KFR1 101113Z 21004KT M03/M07 A3031 RMK A01 T10291074  RH  071%=      5-min Rain = 0
KFR1 101114Z 21004KT M03/M07 A3031 RMK A01 T10281073  RH  071%=      5-min Rain = 0
KFR1 101115Z 20003KT M03/M07 A3031 RMK A01 T10261073  RH  070%=      5-min Rain = 0
KFR1 101116Z 21003KT M03/M07 A3031 RMK A01 T10251073  RH  070%=      5-min Rain = 0
KFR1 101117Z 20003KT M02/M07 A3031 RMK A01 T10241073  RH  069%=      5-min Rain = 0
KFR1 101118Z 20004KT M02/M07 A3031 RMK A01 T10241073  RH  069%=      5-min Rain = 0
KFR1 101119Z 20003KT M02/M07 A3031 RMK A01 T10231073  RH  069%=      5-min Rain = 0
KFR1 101120Z 19003KT M02/M07 A3031 RMK A01 T10231073  RH  068%=      5-min Rain = 0
KFR1 101121Z 21004KT M02/M07 A3031 RMK A01 T10241074  RH  068%=      5-min Rain = 0
KFR1 101122Z 19004KT M02/M07 A3031 RMK A01 T10241073  RH  069%=      5-min Rain = 0
KFR1 101123Z 20004KT M02/M07 A3031 RMK A01 T10241073  RH  069%=      5-min Rain = 0
KFR1 101124Z 20005KT M03/M07 A3031 RMK A01 T10251074  RH  069%=      5-min Rain = 0
KFR1 101125Z 20004KT M03/M08 A3031 RMK A01 T10271075  RH  069%=      5-min Rain = 0
KFR1 101126Z 20004KT M03/M08 A3031 RMK A01 T10291076  RH  070%=      5-min Rain = 0
KFR1 101127Z 20004KT M03/M08 A3031 RMK A01 T10301076  RH  071%=      5-min Rain = 0
KFR1 101128Z 20004KT M03/M08 A3031 RMK A01 T10311077  RH  071%=      5-min Rain = 0
KFR1 101129Z 20004KT M03/M08 A3031 RMK A01 T10331077  RH  072%=      5-min Rain = 0
KFR1 101130Z 19004KT M03/M08 A3031 RMK A01 T10331076  RH  072%=      5-min Rain = 0
KFR1 101131Z 20004KT M03/M08 A3031 RMK A01 T10331076  RH  072%=      5-min Rain = 0
KFR1 101132Z 19004KT M03/M08 A3031 RMK A01 T10331076  RH  073%=      5-min Rain = 0
KFR1 101133Z 19004KT M03/M08 A3031 RMK A01 T10341076  RH  073%=      5-min Rain = 0
KFR1 101134Z 19004KT M04/M08 A3031 RMK A01 T10351076  RH  073%=      5-min Rain = 0
KFR1 101135Z 19005KT M04/M08 A3031 RMK A01 T10361077  RH  073%=      5-min Rain = 0
KFR1 101136Z 19004KT M04/M08 A3031 RMK A01 T10371078  RH  073%=      5-min Rain = 0
KFR1 101137Z 19004KT M04/M08 A3031 RMK A01 T10381078  RH  074%=      5-min Rain = 0
KFR1 101138Z 19004KT M04/M08 A3031 RMK A01 T10381077  RH  074%=      5-min Rain = 0
KFR1 101139Z 19003KT M04/M08 A3031 RMK A01 T10381077  RH  074%=      5-min Rain = 0
KFR1 101140Z 18003KT M04/M08 A3031 RMK A01 T10381077  RH  075%=      5-min Rain = 0
KFR1 101141Z 18003KT M04/M08 A3031 RMK A01 T10381077  RH  074%=      5-min Rain = 0
KFR1 101142Z 18003KT M04/M08 A3031 RMK A01 T10381076  RH  075%=      5-min Rain = 0
KFR1 101143Z 19003KT M04/M08 A3032 RMK A01 T10371076  RH  075%=      5-min Rain = 0
KFR1 101144Z 19003KT M04/M08 A3032 RMK A01 T10361076  RH  074%=      5-min Rain = 0
KFR1 101145Z 21003KT M04/M08 A3032 RMK A01 T10361076  RH  074%=      5-min Rain = 0
KFR1 101146Z 21003KT M04/M08 A3032 RMK A01 T10361076  RH  074%=      5-min Rain = 0
KFR1 101147Z 20003KT M04/M08 A3032 RMK A01 T10351075  RH  074%=      5-min Rain = 0
KFR1 101148Z 20003KT M03/M08 A3032 RMK A01 T10341075  RH  073%=      5-min Rain = 0
KFR1 101149Z 19002KT M03/M08 A3032 RMK A01 T10341076  RH  073%=      5-min Rain = 0
KFR1 101150Z 19002KT M03/M08 A3032 RMK A01 T10341076  RH  073%=      5-min Rain = 0
KFR1 101151Z 20001KT M03/M08 A3032 RMK A01 T10341076  RH  073%=      5-min Rain = 0
KFR1 101152Z 21001KT M03/M08 A3032 RMK A01 T10341076  RH  073%=      5-min Rain = 0
KFR1 101153Z 21001KT M03/M08 A3032 RMK A01 T10341075  RH  073%=      5-min Rain = 0
KFR1 101154Z 21001KT M03/M08 A3032 RMK A01 T10341075  RH  073%=      5-min Rain = 0
KFR1 101155Z 21000KT M03/M08 A3032 RMK A01 T10341075  RH  073%=      5-min Rain = 0
KFR1 101156Z 04001KT M03/M08 A3033 RMK A01 T10341075  RH  073%=      5-min Rain = 0
KFR1 101157Z 04002KT M04/M08 A3033 RMK A01 T10361078  RH  073%=      5-min Rain = 0
KFR1 101158Z 04002KT M04/M08 A3033 RMK A01 T10391080  RH  073%=      5-min Rain = 0
KFR1 101159Z 04002KT M04/M08 A3033 RMK A01 T10391078  RH  074%=      5-min Rain = 0
KFR1 101200Z 04002KT M04/M08 A3033 RMK A01 T10391077  RH  075%=      5-min Rain = 0
KFR1 101201Z 04002KT M04/M08 A3033 RMK A01 T10391077  RH  075%=      5-min Rain = 0
KFR1 101202Z 05001KT M04/M08 A3033 RMK A01 T10391077  RH  075%=      5-min Rain = 0
KFR1 101203Z 04001KT M04/M08 A3033 RMK A01 T10391077  RH  075%=      5-min Rain = 0
KFR1 101204Z 03002KT M04/M08 A3033 RMK A01 T10381076  RH  075%=      5-min Rain = 0
KFR1 101205Z 02003KT M04/M07 A3033 RMK A01 T10371074  RH  075%=      5-min Rain = 0
KFR1 101206Z 02003KT M04/M07 A3033 RMK A01 T10361074  RH  075%=      5-min Rain = 0
KFR1 101207Z 03003KT M04/M08 A3033 RMK A01 T10351075  RH  074%=      5-min Rain = 0
KFR1 101208Z 04003KT M04/M08 A3033 RMK A01 T10351075  RH  074%=      5-min Rain = 0
KFR1 101209Z 04002KT M04/M08 A3033 RMK A01 T10351076  RH  074%=      5-min Rain = 0
KFR1 101210Z 04001KT M04/M08 A3033 RMK A01 T10351075  RH  074%=      5-min Rain = 0
KFR1 101211Z 05001KT M04/M08 A3033 RMK A01 T10351075  RH  073%=      5-min Rain = 0
KFR1 101212Z 04002KT M03/M08 A3033 RMK A01 T10341075  RH  073%=      5-min Rain = 0
KFR1 101213Z 03003KT M03/M07 A3033 RMK A01 T10331074  RH  073%=      5-min Rain = 0
KFR1 101214Z 03003KT M03/M07 A3033 RMK A01 T10331074  RH  073%=      5-min Rain = 0
KFR1 101215Z 04002KT M03/M07 A3033 RMK A01 T10321073  RH  073%=      5-min Rain = 0
KFR1 101216Z 05001KT M03/M07 A3033 RMK A01 T10311074  RH  072%=      5-min Rain = 0
KFR1 101217Z 06001KT M03/M07 A3033 RMK A01 T10311074  RH  072%=      5-min Rain = 0
KFR1 101218Z 05001KT M03/M08 A3033 RMK A01 T10311075  RH  072%=      5-min Rain = 0
KFR1 101219Z 04003KT M03/M08 A3033 RMK A01 T10311075  RH  072%=      5-min Rain = 0
KFR1 101220Z 04003KT M03/M08 A3034 RMK A01 T10311075  RH  072%=      5-min Rain = 0
KFR1 101221Z 04003KT M03/M08 A3034 RMK A01 T10321075  RH  072%=      5-min Rain = 0
KFR1 101222Z 06001KT M03/M07 A3033 RMK A01 T10321074  RH  072%=      5-min Rain = 0
KFR1 101223Z 19001KT M03/M07 A3033 RMK A01 T10311074  RH  072%=      5-min Rain = 0
KFR1 101224Z 20000KT M03/M08 A3033 RMK A01 T10311075  RH  072%=      5-min Rain = 0
KFR1 101225Z 06000KT M03/M08 A3033 RMK A01 T10341079  RH  071%=      5-min Rain = 0
KFR1 101226Z 07002KT M04/M08 A3034 RMK A01 T10361078  RH  073%=      5-min Rain = 0
KFR1 101227Z 08001KT M04/M08 A3034 RMK A01 T10371077  RH  074%=      5-min Rain = 0
KFR1 101228Z 10000KT M04/M08 A3033 RMK A01 T10371077  RH  074%=      5-min Rain = 0
KFR1 101229Z 00000KT M04/M08 A3033 RMK A01 T10371076  RH  074%=      5-min Rain = 0
KFR1 101230Z 00000KT M04/M08 A3033 RMK A01 T10371077  RH  074%=      5-min Rain = 0
KFR1 101231Z 00000KT M04/M08 A3034 RMK A01 T10401079  RH  074%=      5-min Rain = 0
KFR1 101232Z 00000KT M04/M08 A3034 RMK A01 T10411078  RH  075%=      5-min Rain = 0
KFR1 101233Z 00000KT M04/M08 A3034 RMK A01 T10411077  RH  076%=      5-min Rain = 0
KFR1 101234Z 00000KT M04/M08 A3034 RMK A01 T10401076  RH  076%=      5-min Rain = 0
KFR1 101235Z 00000KT M04/M08 A3034 RMK A01 T10391075  RH  076%=      5-min Rain = 0
KFR1 101236Z 21001KT M04/M08 A3034 RMK A01 T10381075  RH  075%=      5-min Rain = 0
KFR1 101237Z 22002KT M04/M08 A3033 RMK A01 T10381076  RH  075%=      5-min Rain = 0
KFR1 101238Z 23002KT M04/M08 A3033 RMK A01 T10381076  RH  075%=      5-min Rain = 0
KFR1 101239Z 22002KT M04/M08 A3033 RMK A01 T10381076  RH  075%=      5-min Rain = 0
KFR1 101240Z 22002KT M04/M08 A3033 RMK A01 T10381077  RH  075%=      5-min Rain = 0
KFR1 101241Z 21003KT M04/M08 A3033 RMK A01 T10391077  RH  075%=      5-min Rain = 0
KFR1 101242Z 21004KT M04/M08 A3033 RMK A01 T10401078  RH  075%=      5-min Rain = 0
KFR1 101243Z 21005KT M04/M08 A3033 RMK A01 T10431082  RH  075%=      5-min Rain = 0
KFR1 101244Z 20004KT M05/M08 A3033 RMK A01 T10471083  RH  076%=      5-min Rain = 0
KFR1 101245Z 20004KT M05/M08 A3033 RMK A01 T10491083  RH  077%=      5-min Rain = 0
KFR1 101246Z 20004KT M05/M08 A3033 RMK A01 T10501083  RH  077%=      5-min Rain = 0
KFR1 101247Z 20004KT M05/M08 A3033 RMK A01 T10511083  RH  078%=      5-min Rain = 0
KFR1 101248Z 19004KT M05/M08 A3033 RMK A01 T10511082  RH  079%=      5-min Rain = 0
KFR1 101249Z 19004KT M05/M08 A3033 RMK A01 T10511082  RH  079%=      5-min Rain = 0
KFR1 101250Z 18004KT M05/M08 A3033 RMK A01 T10511081  RH  079%=      5-min Rain = 0
KFR1 101251Z 19005KT M05/M08 A3033 RMK A01 T10491078  RH  080%=      5-min Rain = 0
KFR1 101252Z 19005KT M04/M07 A3033 RMK A01 T10441074  RH  080%=      5-min Rain = 0
KFR1 101253Z 19005KT M04/M08 A3033 RMK A01 T10421076  RH  077%=      5-min Rain = 0
KFR1 101254Z 19006KT M04/M08 A3033 RMK A01 T10411077  RH  076%=      5-min Rain = 0
KFR1 101255Z 19005KT M04/M08 A3033 RMK A01 T10411077  RH  076%=      5-min Rain = 0
KFR1 101256Z 19005KT M04/M08 A3033 RMK A01 T10411078  RH  075%=      5-min Rain = 0
KFR1 101257Z 19005KT M04/M08 A3033 RMK A01 T10411078  RH  075%=      5-min Rain = 0
KFR1 101258Z 19005KT M04/M08 A3033 RMK A01 T10421079  RH  075%=      5-min Rain = 0
KFR1 101259Z 19005KT M04/M08 A3033 RMK A01 T10421079  RH  076%=      5-min Rain = 0
KFR1 101300Z 19005KT M04/M08 A3033 RMK A01 T10431078  RH  076%=      5-min Rain = 0
KFR1 101301Z 18005KT M04/M08 A3034 RMK A01 T10421078  RH  076%=      5-min Rain = 0
KFR1 101302Z 19005KT M04/M08 A3034 RMK A01 T10431079  RH  076%=      5-min Rain = 0
KFR1 101303Z 19005KT M04/M08 A3034 RMK A01 T10421078  RH  076%=      5-min Rain = 0
KFR1 101304Z 19005KT M04/M08 A3034 RMK A01 T10421078  RH  076%=      5-min Rain = 0
KFR1 101305Z 19006KT M04/M08 A3034 RMK A01 T10421078  RH  076%=      5-min Rain = 0
KFR1 101306Z 19005KT M04/M08 A3034 RMK A01 T10421078  RH  076%=      5-min Rain = 0
KFR1 101307Z 20005KT M04/M08 A3034 RMK A01 T10431078  RH  076%=      5-min Rain = 0
KFR1 101308Z 19005KT M04/M08 A3034 RMK A01 T10431079  RH  076%=      5-min Rain = 0
KFR1 101309Z 20005KT M04/M08 A3034 RMK A01 T10431078  RH  077%=      5-min Rain = 0
KFR1 101310Z 19004KT M04/M08 A3034 RMK A01 T10431078  RH  076%=      5-min Rain = 0
KFR1 101311Z 19004KT M04/M08 A3034 RMK A01 T10441079  RH  076%=      5-min Rain = 0
KFR1 101312Z 19005KT M04/M08 A3034 RMK A01 T10441079  RH  076%=      5-min Rain = 0
KFR1 101313Z 19004KT M04/M08 A3034 RMK A01 T10441079  RH  076%=      5-min Rain = 0
KFR1 101314Z 19004KT M05/M08 A3034 RMK A01 T10451080  RH  077%=      5-min Rain = 0
KFR1 101315Z 19004KT M05/M08 A3034 RMK A01 T10451080  RH  077%=      5-min Rain = 0
KFR1 101316Z 19005KT M05/M08 A3034 RMK A01 T10451080  RH  077%=      5-min Rain = 0
KFR1 101317Z 20005KT M05/M08 A3034 RMK A01 T10451079  RH  077%=      5-min Rain = 0
KFR1 101318Z 20005KT M05/M08 A3034 RMK A01 T10451079  RH  077%=      5-min Rain = 0
KFR1 101319Z 20004KT M05/M08 A3034 RMK A01 T10451080  RH  077%=      5-min Rain = 0
KFR1 101320Z 20005KT M05/M08 A3034 RMK A01 T10451080  RH  076%=      5-min Rain = 0
KFR1 101321Z 21005KT M05/M08 A3034 RMK A01 T10461081  RH  076%=      5-min Rain = 0
KFR1 101322Z 21005KT M05/M08 A3034 RMK A01 T10451080  RH  077%=      5-min Rain = 0
KFR1 101323Z 21005KT M04/M08 A3034 RMK A01 T10441080  RH  076%=      5-min Rain = 0
KFR1 101324Z 21005KT M04/M08 A3034 RMK A01 T10441080  RH  076%=      5-min Rain = 0
KFR1 101325Z 21005KT M04/M08 A3034 RMK A01 T10441080  RH  076%=      5-min Rain = 0
KFR1 101326Z 21005KT M04/M08 A3034 RMK A01 T10441080  RH  076%=      5-min Rain = 0
KFR1 101327Z 21004KT M04/M08 A3034 RMK A01 T10441080  RH  076%=      5-min Rain = 0
KFR1 101328Z 22005KT M04/M08 A3034 RMK A01 T10441080  RH  076%=      5-min Rain = 0
KFR1 101329Z 21004KT M04/M08 A3034 RMK A01 T10441080  RH  076%=      5-min Rain = 0
KFR1 101330Z 21004KT M05/M08 A3034 RMK A01 T10451081  RH  076%=      5-min Rain = 0
KFR1 101331Z 21004KT M05/M08 A3034 RMK A01 T10461082  RH  076%=      5-min Rain = 0
KFR1 101332Z 21004KT M05/M08 A3034 RMK A01 T10461081  RH  076%=      5-min Rain = 0
KFR1 101333Z 22004KT M05/M08 A3034 RMK A01 T10451081  RH  076%=      5-min Rain = 0
KFR1 101334Z 21004KT M04/M08 A3034 RMK A01 T10441080  RH  076%=      5-min Rain = 0
KFR1 101335Z 22005KT M04/M08 A3034 RMK A01 T10421079  RH  076%=      5-min Rain = 0
KFR1 101336Z 22005KT M04/M08 A3034 RMK A01 T10411079  RH  075%=      5-min Rain = 0
KFR1 101337Z 22005KT M04/M08 A3034 RMK A01 T10401079  RH  074%=      5-min Rain = 0
KFR1 101338Z 22004KT M04/M08 A3034 RMK A01 T10401079  RH  074%=      5-min Rain = 0
KFR1 101339Z 22004KT M04/M08 A3034 RMK A01 T10381079  RH  074%=      5-min Rain = 0
KFR1 101340Z 22005KT M04/M08 A3035 RMK A01 T10371079  RH  073%=      5-min Rain = 0
KFR1 101341Z 22005KT M04/M08 A3035 RMK A01 T10361078  RH  073%=      5-min Rain = 0
KFR1 101342Z 23004KT M04/M08 A3035 RMK A01 T10351079  RH  072%=      5-min Rain = 0
KFR1 101343Z 21004KT M04/M08 A3035 RMK A01 T10351078  RH  072%=      5-min Rain = 0
KFR1 101344Z 22005KT M03/M08 A3035 RMK A01 T10341079  RH  071%=      5-min Rain = 0
KFR1 101345Z 23004KT M04/M08 A3035 RMK A01 T10351079  RH  071%=      5-min Rain = 0
KFR1 101346Z 23005KT M04/M08 A3035 RMK A01 T10351079  RH  072%=      5-min Rain = 0
KFR1 101347Z 23005KT M04/M08 A3035 RMK A01 T10361079  RH  072%=      5-min Rain = 0
KFR1 101348Z 22006KT M04/M08 A3035 RMK A01 T10361078  RH  072%=      5-min Rain = 0
KFR1 101349Z 22006KT M04/M08 A3035 RMK A01 T10361078  RH  072%=      5-min Rain = 0
KFR1 101350Z 21005KT M03/M08 A3035 RMK A01 T10341077  RH  072%=      5-min Rain = 0
KFR1 101351Z 22005KT M03/M08 A3035 RMK A01 T10321077  RH  071%=      5-min Rain = 0
KFR1 101352Z 22005KT M03/M08 A3035 RMK A01 T10321077  RH  071%=      5-min Rain = 0
KFR1 101353Z 23005KT M03/M08 A3035 RMK A01 T10311078  RH  070%=      5-min Rain = 0
KFR1 101354Z 21004KT M03/M08 A3035 RMK A01 T10321078  RH  070%=      5-min Rain = 0
KFR1 101355Z 22005KT M03/M08 A3035 RMK A01 T10321078  RH  070%=      5-min Rain = 0
KFR1 101356Z 21004KT M03/M08 A3035 RMK A01 T10321078  RH  071%=      5-min Rain = 0
KFR1 101357Z 22005KT M03/M08 A3035 RMK A01 T10321078  RH  070%=      5-min Rain = 0
KFR1 101358Z 23006KT M03/M08 A3035 RMK A01 T10331079  RH  071%=      5-min Rain = 0
KFR1 101359Z 23006KT M03/M08 A3035 RMK A01 T10331078  RH  071%=      5-min Rain = 0
KFR1 101400Z 22005KT M03/M08 A3035 RMK A01 T10321078  RH  071%=      5-min Rain = 0
KFR1 101401Z 22005KT M03/M08 A3035 RMK A01 T10341079  RH  071%=      5-min Rain = 0
KFR1 101402Z 22005KT M03/M08 A3035 RMK A01 T10341079  RH  071%=      5-min Rain = 0
KFR1 101403Z 22005KT M04/M08 A3035 RMK A01 T10351079  RH  071%=      5-min Rain = 0
KFR1 101404Z 22005KT M04/M08 A3035 RMK A01 T10351079  RH  071%=      5-min Rain = 0
KFR1 101405Z 22006KT M04/M08 A3035 RMK A01 T10361079  RH  072%=      5-min Rain = 0
KFR1 101406Z 21006KT M04/M08 A3035 RMK A01 T10361080  RH  072%=      5-min Rain = 0
KFR1 101407Z 22006KT M04/M08 A3035 RMK A01 T10371080  RH  072%=      5-min Rain = 0
KFR1 101408Z 21006KT M04/M08 A3035 RMK A01 T10371080  RH  072%=      5-min Rain = 0
KFR1 101409Z 21006KT M04/M08 A3035 RMK A01 T10381080  RH  073%=      5-min Rain = 0
KFR1 101410Z 21006KT M04/M08 A3035 RMK A01 T10381080  RH  073%=      5-min Rain = 0
KFR1 101411Z 20006KT M04/M08 A3035 RMK A01 T10391081  RH  073%=      5-min Rain = 0
KFR1 101412Z 21006KT M04/M08 A3035 RMK A01 T10401081  RH  074%=      5-min Rain = 0
KFR1 101413Z 20007KT M04/M08 A3035 RMK A01 T10411081  RH  074%=      5-min Rain = 0
KFR1 101414Z 20007KT M04/M08 A3035 RMK A01 T10411080  RH  075%=      5-min Rain = 0
KFR1 101415Z 20006KT M04/M08 A3035 RMK A01 T10421080  RH  075%=      5-min Rain = 0
KFR1 101416Z 21006KT M04/M08 A3035 RMK A01 T10421080  RH  075%=      5-min Rain = 0
KFR1 101417Z 20006KT M04/M08 A3035 RMK A01 T10411079  RH  075%=      5-min Rain = 0
KFR1 101418Z 20005KT M04/M08 A3035 RMK A01 T10401079  RH  075%=      5-min Rain = 0
KFR1 101419Z 20006KT M04/M08 A3035 RMK A01 T10401079  RH  074%=      5-min Rain = 0
KFR1 101420Z 21005KT M04/M08 A3035 RMK A01 T10391079  RH  074%=      5-min Rain = 0
KFR1 101421Z 21004KT M04/M08 A3035 RMK A01 T10391078  RH  074%=      5-min Rain = 0
KFR1 101422Z 21005KT M04/M08 A3035 RMK A01 T10401079  RH  074%=      5-min Rain = 0
KFR1 101423Z 21006KT M04/M08 A3035 RMK A01 T10401079  RH  074%=      5-min Rain = 0
KFR1 101424Z 21005KT M04/M08 A3035 RMK A01 T10391078  RH  074%=      5-min Rain = 0
KFR1 101425Z 21004KT M04/M08 A3035 RMK A01 T10391078  RH  074%=      5-min Rain = 0
KFR1 101426Z 20003KT M04/M08 A3035 RMK A01 T10391078  RH  074%=      5-min Rain = 0
KFR1 101427Z 21004KT M04/M08 A3035 RMK A01 T10391078  RH  074%=      5-min Rain = 0
KFR1 101428Z 21005KT M04/M08 A3035 RMK A01 T10381077  RH  074%=      5-min Rain = 0
KFR1 101429Z 21005KT M04/M08 A3035 RMK A01 T10371077  RH  074%=      5-min Rain = 0
KFR1 101430Z 22004KT M03/M08 A3035 RMK A01 T10341076  RH  073%=      5-min Rain = 0
KFR1 101431Z 22003KT M03/M08 A3035 RMK A01 T10331076  RH  072%=      5-min Rain = 0
KFR1 101432Z 23004KT M03/M08 A3035 RMK A01 T10331076  RH  072%=      5-min Rain = 0
KFR1 101433Z 22005KT M03/M08 A3035 RMK A01 T10321076  RH  072%=      5-min Rain = 0
KFR1 101434Z 22004KT M03/M08 A3035 RMK A01 T10321076  RH  072%=      5-min Rain = 0
KFR1 101435Z 22003KT M03/M08 A3035 RMK A01 T10311076  RH  071%=      5-min Rain = 0
KFR1 101436Z 21005KT M03/M08 A3035 RMK A01 T10311076  RH  071%=      5-min Rain = 0
KFR1 101437Z 21004KT M03/M08 A3035 RMK A01 T10311075  RH  071%=      5-min Rain = 0
KFR1 101438Z 21005KT M03/M08 A3035 RMK A01 T10321075  RH  072%=      5-min Rain = 0
KFR1 101439Z 21004KT M03/M08 A3035 RMK A01 T10331075  RH  072%=      5-min Rain = 0
KFR1 101440Z 21005KT M03/M07 A3035 RMK A01 T10321073  RH  073%=      5-min Rain = 0
KFR1 101441Z 22005KT M03/M07 A3035 RMK A01 T10321073  RH  073%=      5-min Rain = 0
KFR1 101442Z 22006KT M03/M07 A3035 RMK A01 T10311073  RH  073%=      5-min Rain = 0
KFR1 101443Z 22005KT M03/M07 A3035 RMK A01 T10311074  RH  072%=      5-min Rain = 0
KFR1 101444Z 23006KT M03/M07 A3035 RMK A01 T10311073  RH  072%=      5-min Rain = 0
KFR1 101445Z 22005KT M03/M07 A3035 RMK A01 T10301073  RH  072%=      5-min Rain = 0
KFR1 101446Z 22005KT M03/M07 A3035 RMK A01 T10291073  RH  072%=      5-min Rain = 0
KFR1 101447Z 23005KT M03/M07 A3035 RMK A01 T10291073  RH  072%=      5-min Rain = 0
KFR1 101448Z 23005KT M03/M07 A3035 RMK A01 T10291073  RH  071%=      5-min Rain = 0
KFR1 101449Z 23005KT M03/M07 A3035 RMK A01 T10281072  RH  071%=      5-min Rain = 0
KFR1 101450Z 23006KT M03/M07 A3035 RMK A01 T10271072  RH  071%=      5-min Rain = 0
KFR1 101451Z 23005KT M03/M07 A3035 RMK A01 T10261072  RH  071%=      5-min Rain = 0
KFR1 101452Z 24005KT M03/M07 A3035 RMK A01 T10251071  RH  071%=      5-min Rain = 0
KFR1 101453Z 24005KT M03/M07 A3035 RMK A01 T10251071  RH  070%=      5-min Rain = 0
KFR1 101454Z 24005KT M02/M07 A3035 RMK A01 T10241072  RH  070%=      5-min Rain = 0
KFR1 101455Z 24004KT M02/M07 A3035 RMK A01 T10241073  RH  069%=      5-min Rain = 0
KFR1 101456Z 24004KT M02/M07 A3035 RMK A01 T10241073  RH  069%=      5-min Rain = 0
KFR1 101457Z 23004KT M02/M07 A3035 RMK A01 T10231073  RH  069%=      5-min Rain = 0
KFR1 101458Z 24003KT M02/M07 A3035 RMK A01 T10231073  RH  069%=      5-min Rain = 0
KFR1 101459Z 24003KT M02/M07 A3035 RMK A01 T10231072  RH  069%=      5-min Rain = 0
KFR1 101500Z 25002KT M02/M07 A3035 RMK A01 T10221071  RH  069%=      5-min Rain = 0
KFR1 101501Z 23003KT M02/M07 A3035 RMK A01 T10221072  RH  068%=      5-min Rain = 0
KFR1 101502Z 22004KT M02/M07 A3036 RMK A01 T10211072  RH  068%=      5-min Rain = 0
KFR1 101503Z 23004KT M02/M07 A3036 RMK A01 T10201071  RH  068%=      5-min Rain = 0
KFR1 101504Z 23003KT M02/M07 A3036 RMK A01 T10191071  RH  068%=      5-min Rain = 0
KFR1 101505Z 22004KT M02/M07 A3036 RMK A01 T10191071  RH  068%=      5-min Rain = 0
KFR1 101506Z 22004KT M02/M07 A3036 RMK A01 T10191073  RH  067%=      5-min Rain = 0
KFR1 101507Z 22003KT M02/M07 A3036 RMK A01 T10191073  RH  067%=      5-min Rain = 0
KFR1 101508Z 22005KT M02/M07 A3036 RMK A01 T10191072  RH  067%=      5-min Rain = 0
KFR1 101509Z 22005KT M02/M07 A3036 RMK A01 T10181071  RH  067%=      5-min Rain = 0
KFR1 101510Z 23006KT M02/M07 A3036 RMK A01 T10181071  RH  067%=      5-min Rain = 0
KFR1 101511Z 23005KT M02/M07 A3036 RMK A01 T10181072  RH  067%=      5-min Rain = 0
KFR1 101512Z 23005KT M02/M07 A3036 RMK A01 T10181072  RH  067%=      5-min Rain = 0
KFR1 101513Z 23005KT M02/M07 A3036 RMK A01 T10181071  RH  067%=      5-min Rain = 0
KFR1 101514Z 22005KT M02/M07 A3036 RMK A01 T10161070  RH  067%=      5-min Rain = 0
KFR1 101515Z 23005KT M02/M07 A3036 RMK A01 T10151070  RH  066%=      5-min Rain = 0
KFR1 101516Z 22005KT M02/M07 A3036 RMK A01 T10151072  RH  065%=      5-min Rain = 0
KFR1 101517Z 23004KT M02/M07 A3036 RMK A01 T10151073  RH  064%=      5-min Rain = 0
KFR1 101518Z 24003KT M01/M07 A3036 RMK A01 T10141073  RH  064%=      5-min Rain = 0
KFR1 101519Z 23003KT M01/M07 A3037 RMK A01 T10121071  RH  064%=      5-min Rain = 0
KFR1 101520Z 23004KT M01/M07 A3036 RMK A01 T10111071  RH  064%=      5-min Rain = 0
KFR1 101521Z 23004KT M01/M07 A3036 RMK A01 T10111071  RH  064%=      5-min Rain = 0
KFR1 101522Z 22004KT M01/M07 A3037 RMK A01 T10101071  RH  063%=      5-min Rain = 0
KFR1 101523Z 23004KT M01/M07 A3037 RMK A01 T10101072  RH  063%=      5-min Rain = 0
KFR1 101524Z 23004KT M01/M07 A3037 RMK A01 T10101072  RH  063%=      5-min Rain = 0
KFR1 101525Z 22004KT M01/M07 A3037 RMK A01 T10091071  RH  063%=      5-min Rain = 0
KFR1 101526Z 22004KT M01/M07 A3037 RMK A01 T10091071  RH  063%=      5-min Rain = 0
KFR1 101527Z 23004KT M01/M07 A3037 RMK A01 T10081070  RH  063%=      5-min Rain = 0
KFR1 101528Z 22004KT M01/M07 A3037 RMK A01 T10081071  RH  062%=      5-min Rain = 0
KFR1 101529Z 23004KT M01/M07 A3037 RMK A01 T10071069  RH  063%=      5-min Rain = 0
KFR1 101530Z 23005KT M01/M07 A3037 RMK A01 T10071069  RH  063%=      5-min Rain = 0
KFR1 101531Z 23004KT M01/M07 A3037 RMK A01 T10071070  RH  062%=      5-min Rain = 0
KFR1 101532Z 23005KT M01/M07 A3037 RMK A01 T10051069  RH  062%=      5-min Rain = 0
KFR1 101533Z 24005KT M01/M07 A3037 RMK A01 T10051070  RH  061%=      5-min Rain = 0
KFR1 101534Z 24005KT M00/M07 A3037 RMK A01 T10041069  RH  062%=      5-min Rain = 0
KFR1 101535Z 24005KT M00/M07 A3037 RMK A01 T10031069  RH  061%=      5-min Rain = 0
KFR1 101536Z 23005KT M00/M07 A3037 RMK A01 T10031070  RH  061%=      5-min Rain = 0
KFR1 101537Z 23004KT M00/M07 A3037 RMK A01 T10031070  RH  061%=      5-min Rain = 0
KFR1 101538Z 23004KT M00/M07 A3037 RMK A01 T10021068  RH  061%=      5-min Rain = 0
KFR1 101539Z 23004KT 00/07 A3037 RMK A01 T00-00-66  RH  061%=      5-min Rain = 0
KFR1 101540Z 24004KT 00/M07 A3037 RMK A01 T00011065  RH  061%=      5-min Rain = 0
KFR1 101541Z 25004KT 00/M07 A3037 RMK A01 T00021069  RH  059%=      5-min Rain = 0
KFR1 101542Z 25004KT 00/M07 A3037 RMK A01 T00021069  RH  059%=      5-min Rain = 0
KFR1 101543Z 25004KT 00/M07 A3037 RMK A01 T00021067  RH  060%=      5-min Rain = 0
KFR1 101544Z 24004KT 00/M07 A3037 RMK A01 T00021066  RH  060%=      5-min Rain = 0
KFR1 101545Z 26004KT 00/M07 A3037 RMK A01 T00021067  RH  060%=      5-min Rain = 0
KFR1 101546Z 25004KT 00/M07 A3037 RMK A01 T00021067  RH  060%=      5-min Rain = 0
KFR1 101547Z 25004KT 00/M07 A3037 RMK A01 T00031066  RH  060%=      5-min Rain = 0
KFR1 101548Z 24004KT 01/M07 A3037 RMK A01 T00051066  RH  059%=      5-min Rain = 0
KFR1 101549Z 25004KT 01/M07 A3037 RMK A01 T00051067  RH  059%=      5-min Rain = 0
KFR1 101550Z 26004KT 00/M07 A3037 RMK A01 T00041068  RH  058%=      5-min Rain = 0
KFR1 101551Z 25003KT 00/M07 A3037 RMK A01 T00041069  RH  058%=      5-min Rain = 0
KFR1 101552Z 24003KT 01/M07 A3037 RMK A01 T00061066  RH  058%=      5-min Rain = 0
KFR1 101553Z 24004KT 01/M06 A3037 RMK A01 T00091063  RH  058%=      5-min Rain = 0
KFR1 101554Z 24005KT 01/M07 A3037 RMK A01 T00091066  RH  057%=      5-min Rain = 0
KFR1 101555Z 24004KT 01/M07 A3037 RMK A01 T00081070  RH  056%=      5-min Rain = 0
KFR1 101556Z 24004KT 01/M07 A3037 RMK A01 T00081068  RH  057%=      5-min Rain = 0
KFR1 101557Z 23005KT 01/M07 A3037 RMK A01 T00081067  RH  057%=      5-min Rain = 0
KFR1 101558Z 22005KT 01/M07 A3037 RMK A01 T00081068  RH  057%=      5-min Rain = 0
KFR1 101559Z 23005KT 01/M07 A3037 RMK A01 T00071067  RH  058%=      5-min Rain = 0
KFR1 101600Z 23005KT 01/M07 A3037 RMK A01 T00071066  RH  058%=      5-min Rain = 0
KFR1 101601Z 22005KT 01/M07 A3037 RMK A01 T00081066  RH  058%=      5-min Rain = 0
KFR1 101602Z 23005KT 01/M07 A3037 RMK A01 T00071066  RH  058%=      5-min Rain = 0
KFR1 101603Z 24004KT 01/M07 A3037 RMK A01 T00071065  RH  059%=      5-min Rain = 0
KFR1 101604Z 24004KT 01/M07 A3037 RMK A01 T00081065  RH  058%=      5-min Rain = 0
KFR1 101605Z 24004KT 01/M06 A3037 RMK A01 T00111063  RH  058%=      5-min Rain = 0
KFR1 101606Z 25004KT 01/M07 A3037 RMK A01 T00121065  RH  057%=      5-min Rain = 0
KFR1 101607Z 25005KT 01/M07 A3037 RMK A01 T00121066  RH  056%=      5-min Rain = 0
KFR1 101608Z 25004KT 01/M07 A3037 RMK A01 T00111069  RH  055%=      5-min Rain = 0
KFR1 101609Z 26004KT 01/M07 A3037 RMK A01 T00091069  RH  056%=      5-min Rain = 0
KFR1 101610Z 27004KT 01/M07 A3037 RMK A01 T00101067  RH  056%=      5-min Rain = 0
KFR1 101611Z 26004KT 01/M07 A3037 RMK A01 T00101067  RH  056%=      5-min Rain = 0
KFR1 101612Z 26004KT 01/M07 A3037 RMK A01 T00101068  RH  056%=      5-min Rain = 0
KFR1 101613Z 25004KT 01/M07 A3037 RMK A01 T00101067  RH  057%=      5-min Rain = 0
KFR1 101614Z 26004KT 01/M07 A3037 RMK A01 T00111065  RH  057%=      5-min Rain = 0
KFR1 101615Z 27004KT 01/M07 A3037 RMK A01 T00111066  RH  056%=      5-min Rain = 0
KFR1 101616Z 25004KT 01/M07 A3037 RMK A01 T00111067  RH  056%=      5-min Rain = 0
KFR1 101617Z 26003KT 01/M07 A3037 RMK A01 T00111066  RH  056%=      5-min Rain = 0
KFR1 101618Z 26004KT 01/M07 A3037 RMK A01 T00121066  RH  056%=      5-min Rain = 0
KFR1 101619Z 26004KT 01/M07 A3037 RMK A01 T00121068  RH  055%=      5-min Rain = 0
KFR1 101620Z 26004KT 01/M07 A3037 RMK A01 T00121068  RH  055%=      5-min Rain = 0
KFR1 101621Z 26003KT 01/M07 A3037 RMK A01 T00121068  RH  055%=      5-min Rain = 0
KFR1 101622Z 26004KT 01/M07 A3037 RMK A01 T00121067  RH  056%=      5-min Rain = 0
KFR1 101623Z 26004KT 01/M07 A3037 RMK A01 T00131066  RH  056%=      5-min Rain = 0
KFR1 101624Z 26004KT 01/M07 A3037 RMK A01 T00141066  RH  055%=      5-min Rain = 0
KFR1 101625Z 26003KT 01/M07 A3037 RMK A01 T00131068  RH  055%=      5-min Rain = 0
KFR1 101626Z 26003KT 01/M07 A3037 RMK A01 T00131067  RH  055%=      5-min Rain = 0
KFR1 101627Z 26003KT 02/M07 A3037 RMK A01 T00151067  RH  054%=      5-min Rain = 0
KFR1 101628Z 26004KT 02/M07 A3037 RMK A01 T00161067  RH  054%=      5-min Rain = 0
KFR1 101629Z 26004KT 02/M07 A3037 RMK A01 T00171067  RH  053%=      5-min Rain = 0
KFR1 101630Z 26004KT 02/M07 A3037 RMK A01 T00181068  RH  053%=      5-min Rain = 0
KFR1 101631Z 24003KT 02/M07 A3037 RMK A01 T00191065  RH  054%=      5-min Rain = 0
KFR1 101632Z 25005KT 02/M06 A3037 RMK A01 T00211064  RH  054%=      5-min Rain = 0
KFR1 101633Z 25005KT 02/M07 A3037 RMK A01 T00221066  RH  052%=      5-min Rain = 0
KFR1 101634Z 26005KT 02/M07 A3037 RMK A01 T00221066  RH  052%=      5-min Rain = 0
KFR1 101635Z 25006KT 02/M07 A3037 RMK A01 T00211065  RH  053%=      5-min Rain = 0
KFR1 101636Z 26005KT 02/M07 A3037 RMK A01 T00211065  RH  053%=      5-min Rain = 0
KFR1 101637Z 25005KT 02/M07 A3037 RMK A01 T00231066  RH  052%=      5-min Rain = 0
KFR1 101638Z 25005KT 03/M07 A3037 RMK A01 T00251067  RH  051%=      5-min Rain = 0
KFR1 101639Z 26005KT 03/M07 A3036 RMK A01 T00251066  RH  051%=      5-min Rain = 0
KFR1 101640Z 25004KT 03/M07 A3036 RMK A01 T00261066  RH  051%=      5-min Rain = 0
KFR1 101641Z 24005KT 03/M07 A3036 RMK A01 T00261065  RH  051%=      5-min Rain = 0
KFR1 101642Z 23005KT 03/M06 A3036 RMK A01 T00281064  RH  051%=      5-min Rain = 0
KFR1 101643Z 23007KT 03/M07 A3036 RMK A01 T00291065  RH  050%=      5-min Rain = 0
KFR1 101644Z 23007KT 03/M07 A3036 RMK A01 T00311067  RH  049%=      5-min Rain = 0
KFR1 101645Z 22007KT 03/M07 A3036 RMK A01 T00311066  RH  049%=      5-min Rain = 0
KFR1 101646Z 22006KT 03/M07 A3036 RMK A01 T00321065  RH  049%=      5-min Rain = 0
KFR1 101647Z 22006KT 03/M07 A3036 RMK A01 T00321065  RH  049%=      5-min Rain = 0
KFR1 101648Z 23007KT 03/M07 A3036 RMK A01 T00321065  RH  049%=      5-min Rain = 0
KFR1 101649Z 22006KT 03/M07 A3036 RMK A01 T00311069  RH  048%=      5-min Rain = 0
KFR1 101650Z 22006KT 03/M07 A3036 RMK A01 T00301071  RH  047%=      5-min Rain = 0
KFR1 101651Z 22006KT 03/M07 A3036 RMK A01 T00301070  RH  048%=      5-min Rain = 0
KFR1 101652Z 23006KT 03/M07 A3036 RMK A01 T00301070  RH  048%=      5-min Rain = 0
KFR1 101653Z 22006KT 03/M07 A3036 RMK A01 T00331067  RH  048%=      5-min Rain = 0
KFR1 101654Z 22006KT 03/M07 A3036 RMK A01 T00331070  RH  047%=      5-min Rain = 0
KFR1 101655Z 22005KT 03/M07 A3036 RMK A01 T00331070  RH  047%=      5-min Rain = 0
KFR1 101656Z 24005KT 03/M07 A3036 RMK A01 T00341068  RH  047%=      5-min Rain = 0
KFR1 101657Z 23005KT 04/M07 A3036 RMK A01 T00361067  RH  047%=      5-min Rain = 0
KFR1 101658Z 23005KT 04/M07 A3036 RMK A01 T00361069  RH  046%=      5-min Rain = 0
KFR1 101659Z 25006KT 04/M07 A3036 RMK A01 T00361070  RH  046%=      5-min Rain = 0
KFR1 101700Z 25005KT 04/M07 A3036 RMK A01 T00361071  RH  045%=      5-min Rain = 0
KFR1 101701Z 24005KT 04/M07 A3036 RMK A01 T00361070  RH  046%=      5-min Rain = 0
KFR1 101702Z 24004KT 04/M07 A3036 RMK A01 T00361069  RH  046%=      5-min Rain = 0
KFR1 101703Z 26005KT 04/M07 A3036 RMK A01 T00381066  RH  047%=      5-min Rain = 0
KFR1 101704Z 26006KT 04/M07 A3036 RMK A01 T00401068  RH  045%=      5-min Rain = 0
KFR1 101705Z 25006KT 04/M07 A3036 RMK A01 T00401069  RH  045%=      5-min Rain = 0
KFR1 101706Z 26006KT 04/M07 A3036 RMK A01 T00381069  RH  046%=      5-min Rain = 0
KFR1 101707Z 26006KT 04/M07 A3036 RMK A01 T00371068  RH  046%=      5-min Rain = 0
KFR1 101708Z 26006KT 04/M07 A3036 RMK A01 T00371069  RH  046%=      5-min Rain = 0
KFR1 101709Z 26006KT 04/M07 A3036 RMK A01 T00381068  RH  046%=      5-min Rain = 0
KFR1 101710Z 25004KT 04/M07 A3036 RMK A01 T00391067  RH  046%=      5-min Rain = 0
KFR1 101711Z 25005KT 04/M06 A3036 RMK A01 T00431064  RH  046%=      5-min Rain = 0
KFR1 101712Z 24005KT 04/M07 A3036 RMK A01 T00441067  RH  044%=      5-min Rain = 0
KFR1 101713Z 24005KT 04/M07 A3036 RMK A01 T00441068  RH  044%=      5-min Rain = 0
KFR1 101714Z 24004KT 04/M07 A3036 RMK A01 T00441069  RH  044%=      5-min Rain = 0
KFR1 101715Z 25003KT 04/M07 A3036 RMK A01 T00441071  RH  043%=      5-min Rain = 0
KFR1 101716Z 24005KT 04/M07 A3036 RMK A01 T00421071  RH  044%=      5-min Rain = 0
KFR1 101717Z 25004KT 04/M07 A3036 RMK A01 T00431071  RH  043%=      5-min Rain = 0
KFR1 101718Z 25004KT 04/M07 A3036 RMK A01 T00441071  RH  043%=      5-min Rain = 0
KFR1 101719Z 25004KT 04/M07 A3036 RMK A01 T00441072  RH  043%=      5-min Rain = 0
KFR1 101720Z 25004KT 04/M07 A3036 RMK A01 T00441070  RH  043%=      5-min Rain = 0
KFR1 101721Z 24005KT 05/M07 A3036 RMK A01 T00451070  RH  043%=      5-min Rain = 0
KFR1 101722Z 24005KT 05/M07 A3035 RMK A01 T00461069  RH  043%=      5-min Rain = 0
KFR1 101723Z 24003KT 05/M07 A3035 RMK A01 T00461070  RH  043%=      5-min Rain = 0
KFR1 101724Z 25003KT 05/M07 A3035 RMK A01 T00461068  RH  043%=      5-min Rain = 0
KFR1 101725Z 27004KT 05/M07 A3035 RMK A01 T00471065  RH  044%=      5-min Rain = 0
KFR1 101726Z 28004KT 05/M06 A3035 RMK A01 T00481064  RH  044%=      5-min Rain = 0
KFR1 101727Z 28004KT 05/M07 A3035 RMK A01 T00491065  RH  043%=      5-min Rain = 0
KFR1 101728Z 28003KT 05/M07 A3035 RMK A01 T00471067  RH  044%=      5-min Rain = 0
KFR1 101729Z 28004KT 05/M07 A3035 RMK A01 T00471065  RH  044%=      5-min Rain = 0
KFR1 101730Z 26004KT 05/M07 A3035 RMK A01 T00481065  RH  044%=      5-min Rain = 0
KFR1 101731Z 27003KT 05/M06 A3035 RMK A01 T00491064  RH  044%=      5-min Rain = 0
KFR1 101732Z 29002KT 05/M06 A3035 RMK A01 T00511063  RH  044%=      5-min Rain = 0
KFR1 101733Z 26002KT 05/M06 A3035 RMK A01 T00521063  RH  043%=      5-min Rain = 0
KFR1 101734Z 28003KT 05/M06 A3035 RMK A01 T00541064  RH  042%=      5-min Rain = 0
KFR1 101735Z 28004KT 05/M06 A3035 RMK A01 T00541064  RH  042%=      5-min Rain = 0
KFR1 101736Z 28002KT 05/M06 A3034 RMK A01 T00531064  RH  043%=      5-min Rain = 0
KFR1 101737Z 28002KT 05/M07 A3034 RMK A01 T00521065  RH  043%=      5-min Rain = 0
KFR1 101738Z 27002KT 05/M06 A3034 RMK A01 T00511064  RH  043%=      5-min Rain = 0
KFR1 101739Z 29003KT 05/M06 A3034 RMK A01 T00501063  RH  044%=      5-min Rain = 0
KFR1 101740Z 29002KT 05/M06 A3034 RMK A01 T00521063  RH  043%=      5-min Rain = 0
KFR1 101741Z 27003KT 05/M06 A3034 RMK A01 T00521063  RH  043%=      5-min Rain = 0
KFR1 101742Z 28003KT 05/M06 A3034 RMK A01 T00511063  RH  043%=      5-min Rain = 0
KFR1 101743Z 28003KT 05/M06 A3034 RMK A01 T00521062  RH  043%=      5-min Rain = 0
KFR1 101744Z 27004KT 05/M06 A3034 RMK A01 T00531062  RH  043%=      5-min Rain = 0
KFR1 101745Z 27005KT 05/M06 A3034 RMK A01 T00531063  RH  043%=      5-min Rain = 0
KFR1 101746Z 27004KT 05/M06 A3034 RMK A01 T00531063  RH  043%=      5-min Rain = 0
KFR1 101747Z 28005KT 05/M06 A3034 RMK A01 T00531063  RH  043%=      5-min Rain = 0
KFR1 101748Z 27005KT 05/M06 A3034 RMK A01 T00521064  RH  043%=      5-min Rain = 0
KFR1 101749Z 27005KT 05/M06 A3034 RMK A01 T00531063  RH  043%=      5-min Rain = 0
KFR1 101750Z 27005KT 05/M07 A3034 RMK A01 T00531065  RH  042%=      5-min Rain = 0
KFR1 101751Z 26005KT 05/M07 A3034 RMK A01 T00521066  RH  042%=      5-min Rain = 0
KFR1 101752Z 28004KT 05/M07 A3034 RMK A01 T00511067  RH  042%=      5-min Rain = 0
KFR1 101753Z 28003KT 05/M06 A3034 RMK A01 T00511064  RH  043%=      5-min Rain = 0
KFR1 101754Z 29004KT 05/M07 A3034 RMK A01 T00531065  RH  042%=      5-min Rain = 0
KFR1 101755Z 28004KT 05/M06 A3033 RMK A01 T00531064  RH  042%=      5-min Rain = 0
KFR1 101756Z 27003KT 05/M06 A3033 RMK A01 T00541062  RH  043%=      5-min Rain = 0
KFR1 101757Z 28003KT 06/M06 A3033 RMK A01 T00551064  RH  042%=      5-min Rain = 0
KFR1 101758Z 28003KT 06/M07 A3033 RMK A01 T00551066  RH  041%=      5-min Rain = 0
KFR1 101759Z 28003KT 06/M07 A3033 RMK A01 T00551066  RH  041%=      5-min Rain = 0
KFR1 101800Z 29002KT 06/M06 A3033 RMK A01 T00561064  RH  042%=      5-min Rain = 0
KFR1 101801Z 28003KT 06/M06 A3033 RMK A01 T00581063  RH  041%=      5-min Rain = 0
KFR1 101802Z 28003KT 06/M06 A3033 RMK A01 T00611062  RH  041%=      5-min Rain = 0
KFR1 101803Z 27002KT 06/M06 A3033 RMK A01 T00611062  RH  041%=      5-min Rain = 0
KFR1 101804Z 29002KT 06/M06 A3032 RMK A01 T00621062  RH  041%=      5-min Rain = 0
KFR1 101805Z 26003KT 06/M06 A3032 RMK A01 T00641061  RH  040%=      5-min Rain = 0
KFR1 101806Z 26003KT 07/M06 A3032 RMK A01 T00651062  RH  040%=      5-min Rain = 0
KFR1 101807Z 26001KT 07/M06 A3032 RMK A01 T00651064  RH  039%=      5-min Rain = 0
KFR1 101808Z 24002KT 07/M06 A3032 RMK A01 T00671063  RH  039%=      5-min Rain = 0
KFR1 101809Z 21003KT 07/M07 A3032 RMK A01 T00681065  RH  038%=      5-min Rain = 0
KFR1 101810Z 20002KT 07/M07 A3032 RMK A01 T00691065  RH  038%=      5-min Rain = 0
KFR1 101811Z 23003KT 07/M06 A3032 RMK A01 T00701063  RH  038%=      5-min Rain = 0
KFR1 101812Z 27002KT 07/M06 A3032 RMK A01 T00721062  RH  038%=      5-min Rain = 0
KFR1 101813Z 21002KT 07/M06 A3032 RMK A01 T00731063  RH  037%=      5-min Rain = 0
KFR1 101814Z 15002KT 07/M06 A3032 RMK A01 T00741064  RH  037%=      5-min Rain = 0
KFR1 101815Z 02004KT 08/M06 A3032 RMK A01 T00751060  RH  038%=      5-min Rain = 0
KFR1 101816Z 00004KT 08/M06 A3032 RMK A01 T00781058  RH  037%=      5-min Rain = 0
KFR1 101817Z 01003KT 08/M06 A3032 RMK A01 T00781058  RH  037%=      5-min Rain = 0
KFR1 101818Z 02002KT 08/M06 A3032 RMK A01 T00761059  RH  038%=      5-min Rain = 0
KFR1 101819Z 04002KT 07/M06 A3032 RMK A01 T00741060  RH  038%=      5-min Rain = 0
KFR1 101820Z 30001KT 07/M06 A3032 RMK A01 T00741059  RH  038%=      5-min Rain = 0
KFR1 101821Z 28002KT 08/M06 A3032 RMK A01 T00751061  RH  037%=      5-min Rain = 0
KFR1 101822Z 32001KT 08/M06 A3031 RMK A01 T00751061  RH  038%=      5-min Rain = 0
KFR1 101823Z 28002KT 07/M06 A3031 RMK A01 T00741060  RH  038%=      5-min Rain = 0
KFR1 101824Z 29003KT 07/M06 A3031 RMK A01 T00741061  RH  038%=      5-min Rain = 0
KFR1 101825Z 28002KT 07/M06 A3031 RMK A01 T00741062  RH  038%=      5-min Rain = 0
KFR1 101826Z 30001KT 07/M06 A3031 RMK A01 T00731063  RH  037%=      5-min Rain = 0
KFR1 101827Z 05001KT 07/M06 A3031 RMK A01 T00721063  RH  038%=      5-min Rain = 0
KFR1 101828Z 25001KT 07/M06 A3031 RMK A01 T00731061  RH  038%=      5-min Rain = 0
KFR1 101829Z 28001KT 08/M06 A3031 RMK A01 T00771060  RH  037%=      5-min Rain = 0
KFR1 101830Z 28003KT 08/M06 A3031 RMK A01 T00791061  RH  036%=      5-min Rain = 0
KFR1 101831Z 25003KT 08/M06 A3031 RMK A01 T00801059  RH  037%=      5-min Rain = 0
KFR1 101832Z 27001KT 08/M06 A3031 RMK A01 T00821060  RH  036%=      5-min Rain = 0
KFR1 101833Z 25001KT 08/M06 A3031 RMK A01 T00841058  RH  036%=      5-min Rain = 0
KFR1 101834Z 25002KT 09/M06 A303 RMK A01 T00851060  RH  035%=      5-min Rain = 0
KFR1 101835Z 26003KT 09/M06 A303 RMK A01 T00851059  RH  035%=      5-min Rain = 0
KFR1 101836Z 27003KT 09/M06 A303 RMK A01 T00851059  RH  035%=      5-min Rain = 0
KFR1 101837Z 26003KT 08/M06 A303 RMK A01 T00831060  RH  036%=      5-min Rain = 0
KFR1 101838Z 28003KT 08/M06 A303 RMK A01 T00821060  RH  036%=      5-min Rain = 0
KFR1 101839Z 28003KT 08/M06 A303 RMK A01 T00801063  RH  036%=      5-min Rain = 0
KFR1 101840Z 27003KT 08/M06 A303 RMK A01 T00781061  RH  037%=      5-min Rain = 0
KFR1 101841Z 29003KT 08/M06 A303 RMK A01 T00791061  RH  036%=      5-min Rain = 0
KFR1 101842Z 28003KT 08/M06 A303 RMK A01 T00801061  RH  036%=      5-min Rain = 0
KFR1 101843Z 28003KT 08/M06 A303 RMK A01 T00801060  RH  036%=      5-min Rain = 0
KFR1 101844Z 28003KT 08/M06 A303 RMK A01 T00801060  RH  036%=      5-min Rain = 0
KFR1 101845Z 28003KT 08/M06 A303 RMK A01 T00801061  RH  036%=      5-min Rain = 0
KFR1 101846Z 28002KT 08/M06 A303 RMK A01 T00791063  RH  036%=      5-min Rain = 0
KFR1 101847Z 27002KT 08/M06 A303 RMK A01 T00781062  RH  036%=      5-min Rain = 0
KFR1 101848Z 28002KT 08/M06 A3029 RMK A01 T00791062  RH  036%=      5-min Rain = 0
KFR1 101849Z 27003KT 08/M06 A3029 RMK A01 T00811061  RH  036%=      5-min Rain = 0
KFR1 101850Z 27003KT 08/M06 A3029 RMK A01 T00821062  RH  035%=      5-min Rain = 0
KFR1 101851Z 28003KT 08/M06 A3029 RMK A01 T00841060  RH  036%=      5-min Rain = 0
KFR1 101852Z 28003KT 08/M06 A3029 RMK A01 T00841062  RH  035%=      5-min Rain = 0
KFR1 101853Z 29002KT 08/M06 A3029 RMK A01 T00831062  RH  035%=      5-min Rain = 0
KFR1 101854Z 30004KT 08/M06 A3029 RMK A01 T00831061  RH  035%=      5-min Rain = 0
KFR1 101855Z 30003KT 08/M06 A3029 RMK A01 T00841061  RH  035%=      5-min Rain = 0
KFR1 101856Z 30003KT 09/M06 A3029 RMK A01 T00861059  RH  035%=      5-min Rain = 0
KFR1 101857Z 27004KT 09/M06 A3029 RMK A01 T00881059  RH  035%=      5-min Rain = 0
KFR1 101858Z 27004KT 09/M06 A3029 RMK A01 T00881061  RH  034%=      5-min Rain = 0
KFR1 101859Z 28004KT 09/M06 A3029 RMK A01 T00861061  RH  035%=      5-min Rain = 0
KFR1 101900Z 28004KT 09/M06 A3029 RMK A01 T00861061  RH  035%=      5-min Rain = 0
KFR1 101901Z 28004KT 09/M06 A3029 RMK A01 T00861062  RH  034%=      5-min Rain = 0
KFR1 101902Z 27004KT 09/M06 A3029 RMK A01 T00861062  RH  034%=      5-min Rain = 0
KFR1 101903Z 28004KT 09/M06 A3029 RMK A01 T00861062  RH  034%=      5-min Rain = 0
KFR1 101904Z 28004KT 09/M06 A3029 RMK A01 T00861062  RH  035%=      5-min Rain = 0
KFR1 101905Z 27004KT 09/M06 A3029 RMK A01 T00871063  RH  034%=      5-min Rain = 0
KFR1 101906Z 28003KT 09/M07 A3029 RMK A01 T00861065  RH  034%=      5-min Rain = 0
KFR1 101907Z 28004KT 09/M06 A3029 RMK A01 T00871064  RH  034%=      5-min Rain = 0
KFR1 101908Z 28004KT 09/M07 A3029 RMK A01 T00871069  RH  033%=      5-min Rain = 0
KFR1 101909Z 28004KT 09/M07 A3029 RMK A01 T00851068  RH  033%=      5-min Rain = 0
KFR1 101910Z 28003KT 08/M07 A3029 RMK A01 T00841068  RH  033%=      5-min Rain = 0
KFR1 101911Z 27003KT 09/M07 A3028 RMK A01 T00851068  RH  033%=      5-min Rain = 0
KFR1 101912Z 28003KT 09/M07 A3028 RMK A01 T00851068  RH  033%=      5-min Rain = 0
KFR1 101913Z 27003KT 09/M07 A3028 RMK A01 T00861068  RH  033%=      5-min Rain = 0
KFR1 101914Z 27003KT 09/M07 A3028 RMK A01 T00861070  RH  032%=      5-min Rain = 0
KFR1 101915Z 27004KT 09/M07 A3028 RMK A01 T00861070  RH  032%=      5-min Rain = 0
KFR1 101916Z 27004KT 09/M07 A3028 RMK A01 T00861070  RH  032%=      5-min Rain = 0
KFR1 101917Z 31003KT 09/M07 A3028 RMK A01 T00891068  RH  032%=      5-min Rain = 0
KFR1 101918Z 28003KT 09/M07 A3028 RMK A01 T00921067  RH  032%=      5-min Rain = 0
KFR1 101919Z 29004KT 09/M07 A3028 RMK A01 T00941067  RH  031%=      5-min Rain = 0
KFR1 101920Z 30004KT 09/M07 A3028 RMK A01 T00941069  RH  031%=      5-min Rain = 0
KFR1 101921Z 27004KT 09/M07 A3028 RMK A01 T00931070  RH  031%=      5-min Rain = 0
KFR1 101922Z 27003KT 09/M07 A3028 RMK A01 T00911073  RH  031%=      5-min Rain = 0
KFR1 101923Z 27003KT 09/M07 A3028 RMK A01 T00901071  RH  031%=      5-min Rain = 0
KFR1 101924Z 28002KT 09/M07 A3028 RMK A01 T00911070  RH  031%=      5-min Rain = 0
KFR1 101925Z 32003KT 09/M07 A3028 RMK A01 T00911069  RH  032%=      5-min Rain = 0
KFR1 101926Z 31002KT 09/M07 A3028 RMK A01 T00921066  RH  032%=      5-min Rain = 0
KFR1 101927Z 32002KT 09/M07 A3028 RMK A01 T00931068  RH  032%=      5-min Rain = 0
KFR1 101928Z 30003KT 09/M07 A3028 RMK A01 T00931066  RH  032%=      5-min Rain = 0
KFR1 101929Z 31003KT 09/M07 A3028 RMK A01 T00941066  RH  032%=      5-min Rain = 0
KFR1 101930Z 31002KT 09/M07 A3028 RMK A01 T00941067  RH  031%=      5-min Rain = 0
KFR1 101931Z 31002KT 09/M07 A3028 RMK A01 T00921068  RH  032%=      5-min Rain = 0
KFR1 101932Z 34002KT 09/M07 A3028 RMK A01 T00921067  RH  032%=      5-min Rain = 0
KFR1 101933Z 31003KT 09/M06 A3028 RMK A01 T00941064  RH  032%=      5-min Rain = 0
KFR1 101934Z 33003KT 10/M06 A3028 RMK A01 T00961064  RH  032%=      5-min Rain = 0
KFR1 101935Z 31004KT 10/M06 A3028 RMK A01 T00961064  RH  032%=      5-min Rain = 0
KFR1 101936Z 31003KT 10/M06 A3028 RMK A01 T00981063  RH  032%=      5-min Rain = 0
KFR1 101937Z 31004KT 10/M06 A3028 RMK A01 T00981064  RH  031%=      5-min Rain = 0
KFR1 101938Z 31003KT 10/M07 A3028 RMK A01 T00961066  RH  031%=      5-min Rain = 0
KFR1 101939Z 32003KT 09/M07 A3028 RMK A01 T00941066  RH  032%=      5-min Rain = 0
KFR1 101940Z 30002KT 09/M07 A3028 RMK A01 T00931066  RH  032%=      5-min Rain = 0
KFR1 101941Z 26003KT 09/M06 A3028 RMK A01 T00941063  RH  032%=      5-min Rain = 0
KFR1 101942Z 28004KT 10/M07 A3028 RMK A01 T00961065  RH  031%=      5-min Rain = 0
KFR1 101943Z 29004KT 10/M07 A3028 RMK A01 T00971065  RH  031%=      5-min Rain = 0
KFR1 101944Z 31004KT 10/M07 A3028 RMK A01 T00981066  RH  031%=      5-min Rain = 0
KFR1 101945Z 29003KT 10/M06 A3028 RMK A01 T00991064  RH  031%=      5-min Rain = 0
KFR1 101946Z 29003KT 10/M06 A3027 RMK A01 T01021063  RH  031%=      5-min Rain = 0
KFR1 101947Z 29003KT 10/M06 A3027 RMK A01 T01041064  RH  030%=      5-min Rain = 0
KFR1 101948Z 29002KT 10/M06 A3027 RMK A01 T01041064  RH  030%=      5-min Rain = 0
KFR1 101949Z 28004KT 11/M07 A3027 RMK A01 T01051065  RH  029%=      5-min Rain = 0
KFR1 101950Z 29004KT 10/M07 A3027 RMK A01 T01041066  RH  029%=      5-min Rain = 0
KFR1 101951Z 29005KT 10/M07 A3027 RMK A01 T01041066  RH  030%=      5-min Rain = 0
KFR1 101952Z 26005KT 10/M07 A3027 RMK A01 T01021068  RH  029%=      5-min Rain = 0
KFR1 101953Z 29004KT 10/M07 A3027 RMK A01 T01011067  RH  030%=      5-min Rain = 0
KFR1 101954Z 29004KT 10/M06 A3027 RMK A01 T01031064  RH  030%=      5-min Rain = 0
KFR1 101955Z 30003KT 10/M07 A3027 RMK A01 T01041066  RH  030%=      5-min Rain = 0
KFR1 101956Z 28004KT 10/M07 A3027 RMK A01 T01031067  RH  030%=      5-min Rain = 0
KFR1 101957Z 29003KT 10/M07 A3027 RMK A01 T01031066  RH  030%=      5-min Rain = 0
KFR1 101958Z 28003KT 10/M07 A3027 RMK A01 T01031067  RH  030%=      5-min Rain = 0
KFR1 101959Z 29003KT 10/M07 A3027 RMK A01 T01011068  RH  030%=      5-min Rain = 0
KFR1 102000Z 28003KT 10/M07 A3027 RMK A01 T01011066  RH  030%=      5-min Rain = 0
KFR1 102001Z 28002KT 10/M07 A3027 RMK A01 T01021066  RH  030%=      5-min Rain = 0
KFR1 102002Z 25003KT 10/M07 A3026 RMK A01 T01021065  RH  030%=      5-min Rain = 0
KFR1 102003Z 25004KT 10/M07 A3026 RMK A01 T01041066  RH  030%=      5-min Rain = 0
KFR1 102004Z 28001KT 10/M07 A3026 RMK A01 T01031065  RH  030%=      5-min Rain = 0
KFR1 102005Z 29002KT 11/M06 A3026 RMK A01 T01051061  RH  030%=      5-min Rain = 0
KFR1 102006Z 30002KT 11/M06 A3026 RMK A01 T01091062  RH  030%=      5-min Rain = 0
KFR1 102007Z 29003KT 11/M06 A3026 RMK A01 T01101063  RH  029%=      5-min Rain = 0
KFR1 102008Z 28004KT 11/M07 A3026 RMK A01 T01081065  RH  029%=      5-min Rain = 0
KFR1 102009Z 30003KT 11/M07 A3026 RMK A01 T01071065  RH  029%=      5-min Rain = 0
KFR1 102010Z 32004KT 11/M07 A3026 RMK A01 T01051066  RH  029%=      5-min Rain = 0
KFR1 102011Z 30005KT 10/M06 A3026 RMK A01 T01041064  RH  030%=      5-min Rain = 0
KFR1 102012Z 31004KT 10/M07 A3026 RMK A01 T01041065  RH  030%=      5-min Rain = 0
KFR1 102013Z 31003KT 10/M07 A3026 RMK A01 T01041065  RH  030%=      5-min Rain = 0
KFR1 102014Z 32002KT 10/M06 A3026 RMK A01 T01041063  RH  030%=      5-min Rain = 0
KFR1 102015Z 27003KT 11/M06 A3026 RMK A01 T01061063  RH  030%=      5-min Rain = 0
KFR1 102016Z 27003KT 11/M06 A3026 RMK A01 T01081063  RH  030%=      5-min Rain = 0
KFR1 102017Z 27004KT 11/M06 A3026 RMK A01 T01101063  RH  029%=      5-min Rain = 0
KFR1 102018Z 28003KT 11/M07 A3026 RMK A01 T01091065  RH  029%=      5-min Rain = 0
KFR1 102019Z 29004KT 11/M07 A3026 RMK A01 T01071066  RH  029%=      5-min Rain = 0
KFR1 102020Z 28004KT 11/M07 A3026 RMK A01 T01061065  RH  029%=      5-min Rain = 0
KFR1 102021Z 27004KT 11/M07 A3026 RMK A01 T01051065  RH  030%=      5-min Rain = 0
KFR1 102022Z 27003KT 11/M07 A3026 RMK A01 T01051065  RH  030%=      5-min Rain = 0
KFR1 102023Z 26003KT 11/M06 A3026 RMK A01 T01081061  RH  030%=      5-min Rain = 0
KFR1 102024Z 25003KT 11/M07 A3025 RMK A01 T01101065  RH  029%=      5-min Rain = 0
KFR1 102025Z 27002KT 11/M06 A3025 RMK A01 T01091064  RH  029%=      5-min Rain = 0
KFR1 102026Z 26002KT 11/M06 A3025 RMK A01 T01111063  RH  029%=      5-min Rain = 0
KFR1 102027Z 27002KT 11/M06 A3025 RMK A01 T01121064  RH  028%=      5-min Rain = 0
KFR1 102028Z 29002KT 11/M07 A3025 RMK A01 T01131065  RH  028%=      5-min Rain = 0
KFR1 102029Z 23002KT 11/M06 A3025 RMK A01 T01131064  RH  028%=      5-min Rain = 0
KFR1 102030Z 27002KT 11/M07 A3025 RMK A01 T01131065  RH  028%=      5-min Rain = 0
KFR1 102031Z 28003KT 11/M07 A3025 RMK A01 T01131066  RH  028%=      5-min Rain = 0
KFR1 102032Z 26003KT 11/M06 A3025 RMK A01 T01141063  RH  028%=      5-min Rain = 0
KFR1 102033Z 27003KT 12/M07 A3025 RMK A01 T01151065  RH  028%=      5-min Rain = 0
KFR1 102034Z 28003KT 12/M07 A3025 RMK A01 T01151066  RH  028%=      5-min Rain = 0
KFR1 102035Z 29003KT 11/M07 A3025 RMK A01 T01131066  RH  028%=      5-min Rain = 0
KFR1 102036Z 28003KT 11/M07 A3025 RMK A01 T01131066  RH  028%=      5-min Rain = 0
KFR1 102037Z 29003KT 11/M06 A3025 RMK A01 T01141064  RH  028%=      5-min Rain = 0
KFR1 102038Z 27003KT 12/M06 A3025 RMK A01 T01161064  RH  028%=      5-min Rain = 0
KFR1 102039Z 27005KT 12/M07 A3025 RMK A01 T01171065  RH  027%=      5-min Rain = 0
KFR1 102040Z 28004KT 11/M07 A3025 RMK A01 T01141067  RH  027%=      5-min Rain = 0
KFR1 102041Z 28004KT 11/M07 A3025 RMK A01 T01121067  RH  028%=      5-min Rain = 0
KFR1 102042Z 27003KT 11/M07 A3025 RMK A01 T01121067  RH  028%=      5-min Rain = 0
KFR1 102043Z 27003KT 11/M07 A3025 RMK A01 T01131066  RH  028%=      5-min Rain = 0
KFR1 102044Z 26003KT 12/M07 A3025 RMK A01 T01151065  RH  028%=      5-min Rain = 0
KFR1 102045Z 27002KT 12/M07 A3025 RMK A01 T01171065  RH  027%=      5-min Rain = 0
KFR1 102046Z 26004KT 12/M07 A3025 RMK A01 T01171065  RH  027%=      5-min Rain = 0
KFR1 102047Z 28004KT 12/M07 A3025 RMK A01 T01181065  RH  027%=      5-min Rain = 0
KFR1 102048Z 27003KT 12/M07 A3025 RMK A01 T01181066  RH  027%=      5-min Rain = 0
KFR1 102049Z 27005KT 12/M07 A3025 RMK A01 T01181066  RH  027%=      5-min Rain = 0
KFR1 102050Z 26004KT 12/M06 A3025 RMK A01 T01181064  RH  027%=      5-min Rain = 0
KFR1 102051Z 27003KT 12/M06 A3025 RMK A01 T01191063  RH  027%=      5-min Rain = 0
KFR1 102052Z 25004KT 12/M06 A3024 RMK A01 T01201063  RH  027%=      5-min Rain = 0
KFR1 102053Z 23003KT 12/M07 A3024 RMK A01 T01191065  RH  027%=      5-min Rain = 0
KFR1 102054Z 26003KT 12/M07 A3024 RMK A01 T01171067  RH  027%=      5-min Rain = 0
KFR1 102055Z 26003KT 12/M07 A3024 RMK A01 T01161067  RH  027%=      5-min Rain = 0
KFR1 102056Z 27002KT 12/M07 A3024 RMK A01 T01171065  RH  027%=      5-min Rain = 0
KFR1 102057Z 27003KT 12/M07 A3024 RMK A01 T01181066  RH  027%=      5-min Rain = 0
KFR1 102058Z 28002KT 12/M07 A3024 RMK A01 T01171068  RH  027%=      5-min Rain = 0
KFR1 102059Z 28003KT 12/M07 A3024 RMK A01 T01161067  RH  027%=      5-min Rain = 0
KFR1 102100Z 28003KT 12/M07 A3024 RMK A01 T01171067  RH  027%=      5-min Rain = 0
KFR1 102101Z 28003KT 12/M07 A3024 RMK A01 T01171068  RH  027%=      5-min Rain = 0
KFR1 102102Z 28005KT 12/M07 A3024 RMK A01 T01171067  RH  027%=      5-min Rain = 0
KFR1 102103Z 27005KT 12/M07 A3024 RMK A01 T01181066  RH  027%=      5-min Rain = 0
KFR1 102104Z 27004KT 12/M07 A3024 RMK A01 T01171065  RH  027%=      5-min Rain = 0
KFR1 102105Z 27004KT 12/M07 A3024 RMK A01 T01161067  RH  027%=      5-min Rain = 0
KFR1 102106Z 28004KT 12/M07 A3024 RMK A01 T01151068  RH  027%=      5-min Rain = 0
KFR1 102107Z 27004KT 12/M07 A3024 RMK A01 T01151068  RH  027%=      5-min Rain = 0
KFR1 102108Z 27004KT 12/M07 A3024 RMK A01 T01161067  RH  027%=      5-min Rain = 0
KFR1 102109Z 26004KT 12/M07 A3024 RMK A01 T01171066  RH  027%=      5-min Rain = 0
KFR1 102110Z 26003KT 12/M07 A3024 RMK A01 T01181065  RH  027%=      5-min Rain = 0
KFR1 102111Z 28004KT 12/M06 A3024 RMK A01 T01201063  RH  027%=      5-min Rain = 0
KFR1 102112Z 27005KT 12/M06 A3024 RMK A01 T01221063  RH  027%=      5-min Rain = 0
KFR1 102113Z 28005KT 12/M07 A3024 RMK A01 T01191065  RH  027%=      5-min Rain = 0
KFR1 102114Z 27004KT 12/M07 A3024 RMK A01 T01161067  RH  027%=      5-min Rain = 0
KFR1 102115Z 28004KT 12/M07 A3024 RMK A01 T01151066  RH  028%=      5-min Rain = 0
KFR1 102116Z 27003KT 12/M06 A3024 RMK A01 T01151064  RH  028%=      5-min Rain = 0
KFR1 102117Z 27004KT 12/M06 A3024 RMK A01 T01181063  RH  028%=      5-min Rain = 0
KFR1 102118Z 25003KT 12/M07 A3024 RMK A01 T01191066  RH  027%=      5-min Rain = 0
KFR1 102119Z 27003KT 12/M07 A3024 RMK A01 T01171068  RH  027%=      5-min Rain = 0
KFR1 102120Z 24002KT 12/M07 A3024 RMK A01 T01171067  RH  027%=      5-min Rain = 0
KFR1 102121Z 21000KT 12/M07 A3024 RMK A01 T01171069  RH  027%=      5-min Rain = 0
KFR1 102122Z 24000KT 12/M07 A3024 RMK A01 T01191068  RH  026%=      5-min Rain = 0
KFR1 102123Z 28003KT 12/M07 A3024 RMK A01 T01201068  RH  026%=      5-min Rain = 0
KFR1 102124Z 28002KT 12/M07 A3024 RMK A01 T01211068  RH  026%=      5-min Rain = 0
KFR1 102125Z 25001KT 12/M07 A3024 RMK A01 T01211068  RH  026%=      5-min Rain = 0
KFR1 102126Z 25001KT 12/M07 A3024 RMK A01 T01211068  RH  026%=      5-min Rain = 0
KFR1 102127Z 28002KT 12/M07 A3024 RMK A01 T01231067  RH  026%=      5-min Rain = 0
KFR1 102128Z 26001KT 13/M07 A3024 RMK A01 T01251067  RH  026%=      5-min Rain = 0
KFR1 102129Z 26003KT 13/M07 A3024 RMK A01 T01251068  RH  025%=      5-min Rain = 0
KFR1 102130Z 24001KT 12/M07 A3024 RMK A01 T01231070  RH  025%=      5-min Rain = 0
KFR1 102131Z 29001KT 12/M07 A3024 RMK A01 T01221068  RH  026%=      5-min Rain = 0
KFR1 102132Z 32000KT 12/M07 A3024 RMK A01 T01221068  RH  026%=      5-min Rain = 0
KFR1 102133Z 07000KT 12/M07 A3024 RMK A01 T01211069  RH  026%=      5-min Rain = 0
KFR1 102134Z 07000KT 12/M07 A3024 RMK A01 T01221068  RH  026%=      5-min Rain = 0
KFR1 102135Z 08000KT 12/M07 A3023 RMK A01 T01231069  RH  026%=      5-min Rain = 0
KFR1 102136Z 14001KT 12/M07 A3023 RMK A01 T01241068  RH  026%=      5-min Rain = 0
KFR1 102137Z 13001KT 12/M07 A3023 RMK A01 T01241069  RH  025%=      5-min Rain = 0
KFR1 102138Z 15001KT 12/M07 A3023 RMK A01 T01231070  RH  025%=      5-min Rain = 0
KFR1 102139Z 18002KT 12/M07 A3024 RMK A01 T01231073  RH  025%=      5-min Rain = 0
KFR1 102140Z 20002KT 12/M08 A3024 RMK A01 T01231076  RH  024%=      5-min Rain = 0
KFR1 102141Z 23003KT 13/M08 A3024 RMK A01 T01251075  RH  024%=      5-min Rain = 0
KFR1 102142Z 22003KT 13/M08 A3024 RMK A01 T01251075  RH  024%=      5-min Rain = 0
KFR1 102143Z 24003KT 13/M07 A3024 RMK A01 T01251072  RH  025%=      5-min Rain = 0
KFR1 102144Z 24004KT 13/M07 A3024 RMK A01 T01261068  RH  025%=      5-min Rain = 0
KFR1 102145Z 24004KT 13/M07 A3024 RMK A01 T01251072  RH  025%=      5-min Rain = 0
KFR1 102146Z 27002KT 12/M08 A3024 RMK A01 T01231075  RH  024%=      5-min Rain = 0
KFR1 102147Z 24002KT 12/M08 A3024 RMK A01 T01221076  RH  024%=      5-min Rain = 0
KFR1 102148Z 22004KT 12/M08 A3024 RMK A01 T01221075  RH  024%=      5-min Rain = 0
KFR1 102149Z 25003KT 13/M07 A3024 RMK A01 T01251069  RH  025%=      5-min Rain = 0
KFR1 102150Z 25004KT 13/M07 A3024 RMK A01 T01271068  RH  025%=      5-min Rain = 0
KFR1 102151Z 23003KT 13/M07 A3024 RMK A01 T01271073  RH  024%=      5-min Rain = 0
KFR1 102152Z 20002KT 13/M08 A3024 RMK A01 T01271076  RH  024%=      5-min Rain = 0
KFR1 102153Z 19004KT 13/M08 A3024 RMK A01 T01271077  RH  023%=      5-min Rain = 0
KFR1 102154Z 19006KT 13/M08 A3024 RMK A01 T01271077  RH  023%=      5-min Rain = 0
KFR1 102155Z 22006KT 13/M08 A3024 RMK A01 T01251075  RH  024%=      5-min Rain = 0
KFR1 102156Z 23006KT 13/M07 A3024 RMK A01 T01261073  RH  024%=      5-min Rain = 0
KFR1 102157Z 23005KT 13/M08 A3024 RMK A01 T01251075  RH  024%=      5-min Rain = 0
KFR1 102158Z 23005KT 13/M08 A3024 RMK A01 T01251076  RH  024%=      5-min Rain = 0
KFR1 102159Z 22004KT 12/M08 A3024 RMK A01 T01241078  RH  024%=      5-min Rain = 0
KFR1 102200Z 22004KT 12/M08 A3024 RMK A01 T01231077  RH  024%=      5-min Rain = 0
KFR1 102201Z 22004KT 12/M08 A3024 RMK A01 T01231076  RH  024%=      5-min Rain = 0
KFR1 102202Z 21005KT 12/M08 A3024 RMK A01 T01231075  RH  024%=      5-min Rain = 0
KFR1 102203Z 22004KT 12/M08 A3024 RMK A01 T01241075  RH  024%=      5-min Rain = 0
KFR1 102204Z 24004KT 12/M08 A3024 RMK A01 T01241075  RH  024%=      5-min Rain = 0
KFR1 102205Z 23004KT 13/M08 A3024 RMK A01 T01251075  RH  024%=      5-min Rain = 0
KFR1 102206Z 21005KT 13/M07 A3024 RMK A01 T01261074  RH  024%=      5-min Rain = 0
KFR1 102207Z 20007KT 13/M07 A3024 RMK A01 T01261073  RH  024%=      5-min Rain = 0
KFR1 102208Z 22005KT 13/M07 A3024 RMK A01 T01251074  RH  024%=      5-min Rain = 0
KFR1 102209Z 22005KT 12/M07 A3024 RMK A01 T01241074  RH  024%=      5-min Rain = 0
KFR1 102210Z 22005KT 12/M07 A3024 RMK A01 T01241073  RH  025%=      5-min Rain = 0
KFR1 102211Z 21006KT 13/M07 A3024 RMK A01 T01251073  RH  024%=      5-min Rain = 0
KFR1 102212Z 21005KT 13/M08 A3024 RMK A01 T01251075  RH  024%=      5-min Rain = 0
KFR1 102213Z 22006KT 12/M08 A3024 RMK A01 T01241076  RH  024%=      5-min Rain = 0
KFR1 102214Z 20007KT 12/M08 A3024 RMK A01 T01241077  RH  024%=      5-min Rain = 0
KFR1 102215Z 20006KT 12/M08 A3023 RMK A01 T01231076  RH  024%=      5-min Rain = 0
KFR1 102216Z 21005KT 12/M08 A3023 RMK A01 T01231076  RH  024%=      5-min Rain = 0
KFR1 102217Z 22005KT 12/M08 A3023 RMK A01 T01231075  RH  024%=      5-min Rain = 0
KFR1 102218Z 22004KT 12/M08 A3023 RMK A01 T01231076  RH  024%=      5-min Rain = 0
KFR1 102219Z 22003KT 12/M08 A3023 RMK A01 T01231076  RH  024%=      5-min Rain = 0
KFR1 102220Z 21003KT 12/M08 A3023 RMK A01 T01241077  RH  024%=      5-min Rain = 0
KFR1 102221Z 20003KT 12/M08 A3023 RMK A01 T01241077  RH  024%=      5-min Rain = 0
KFR1 102222Z 19004KT 13/M08 A3023 RMK A01 T01251076  RH  024%=      5-min Rain = 0
KFR1 102223Z 20004KT 12/M08 A3023 RMK A01 T01231077  RH  024%=      5-min Rain = 0
KFR1 102224Z 21005KT 12/M08 A3023 RMK A01 T01221078  RH  024%=      5-min Rain = 0
KFR1 102225Z 21005KT 12/M08 A3023 RMK A01 T01221077  RH  024%=      5-min Rain = 0
KFR1 102226Z 21006KT 12/M08 A3023 RMK A01 T01221077  RH  024%=      5-min Rain = 0
KFR1 102227Z 21005KT 12/M08 A3023 RMK A01 T01221077  RH  024%=      5-min Rain = 0
KFR1 102228Z 21006KT 12/M08 A3023 RMK A01 T01221077  RH  024%=      5-min Rain = 0
KFR1 102229Z 21005KT 12/M08 A3024 RMK A01 T01221078  RH  024%=      5-min Rain = 0
KFR1 102230Z 21004KT 12/M08 A3024 RMK A01 T01211077  RH  024%=      5-min Rain = 0
KFR1 102231Z 21003KT 12/M08 A3024 RMK A01 T01221076  RH  024%=      5-min Rain = 0
KFR1 102232Z 22005KT 12/M08 A3023 RMK A01 T01231077  RH  024%=      5-min Rain = 0
KFR1 102233Z 22004KT 12/M08 A3023 RMK A01 T01231078  RH  024%=      5-min Rain = 0
KFR1 102234Z 22004KT 12/M08 A3023 RMK A01 T01231077  RH  024%=      5-min Rain = 0
KFR1 102235Z 21003KT 12/M08 A3023 RMK A01 T01231076  RH  024%=      5-min Rain = 0
KFR1 102236Z 19004KT 12/M08 A3023 RMK A01 T01231076  RH  024%=      5-min Rain = 0
KFR1 102237Z 19004KT 12/M08 A3023 RMK A01 T01231078  RH  024%=      5-min Rain = 0
KFR1 102238Z 19004KT 12/M08 A3023 RMK A01 T01221078  RH  024%=      5-min Rain = 0
KFR1 102239Z 18005KT 12/M08 A3023 RMK A01 T01201078  RH  024%=      5-min Rain = 0
KFR1 102240Z 19006KT 12/M08 A3023 RMK A01 T01201078  RH  024%=      5-min Rain = 0
KFR1 102241Z 19005KT 12/M08 A3023 RMK A01 T01191078  RH  024%=      5-min Rain = 0
KFR1 102242Z 20006KT 12/M08 A3023 RMK A01 T01181079  RH  024%=      5-min Rain = 0
KFR1 102243Z 19005KT 12/M08 A3023 RMK A01 T01171081  RH  024%=      5-min Rain = 0
KFR1 102244Z 19005KT 12/M08 A3023 RMK A01 T01181081  RH  024%=      5-min Rain = 0
KFR1 102245Z 18004KT 12/M08 A3023 RMK A01 T01171081  RH  024%=      5-min Rain = 0
KFR1 102246Z 18004KT 12/M08 A3023 RMK A01 T01171080  RH  024%=      5-min Rain = 0
KFR1 102247Z 18005KT 12/M08 A3023 RMK A01 T01171080  RH  024%=      5-min Rain = 0
KFR1 102248Z 18005KT 12/M08 A3023 RMK A01 T01171081  RH  024%=      5-min Rain = 0
KFR1 102249Z 19006KT 12/M08 A3023 RMK A01 T01161082  RH  024%=      5-min Rain = 0
KFR1 102250Z 18005KT 12/M08 A3023 RMK A01 T01161084  RH  024%=      5-min Rain = 0
KFR1 102251Z 19005KT 12/M08 A3023 RMK A01 T01151083  RH  024%=      5-min Rain = 0
KFR1 102252Z 19005KT 11/M08 A3023 RMK A01 T01141083  RH  024%=      5-min Rain = 0
KFR1 102253Z 19005KT 11/M08 A3023 RMK A01 T01141084  RH  024%=      5-min Rain = 0
KFR1 102254Z 19005KT 11/M08 A3023 RMK A01 T01131084  RH  024%=      5-min Rain = 0
KFR1 102255Z 19004KT 11/M08 A3023 RMK A01 T01121084  RH  024%=      5-min Rain = 0
KFR1 102256Z 19004KT 11/M08 A3023 RMK A01 T01121084  RH  024%=      5-min Rain = 0
KFR1 102257Z 19004KT 11/M08 A3023 RMK A01 T01121084  RH  024%=      5-min Rain = 0
KFR1 102258Z 19004KT 11/M08 A3023 RMK A01 T01121084  RH  025%=      5-min Rain = 0
KFR1 102259Z 20004KT 11/M08 A3023 RMK A01 T01111084  RH  025%=      5-min Rain = 0
KFR1 102300Z 20004KT 11/M08 A3023 RMK A01 T01111084  RH  025%=      5-min Rain = 0
KFR1 102301Z 19004KT 11/M09 A3023 RMK A01 T01101085  RH  025%=      5-min Rain = 0
KFR1 102302Z 19004KT 11/M09 A3023 RMK A01 T01091085  RH  025%=      5-min Rain = 0
KFR1 102303Z 19004KT 11/M09 A3023 RMK A01 T01091086  RH  025%=      5-min Rain = 0
KFR1 102304Z 19004KT 11/M09 A3023 RMK A01 T01081087  RH  025%=      5-min Rain = 0
KFR1 102305Z 18004KT 11/M09 A3023 RMK A01 T01071087  RH  025%=      5-min Rain = 0
KFR1 102306Z 18004KT 11/M09 A3023 RMK A01 T01071087  RH  025%=      5-min Rain = 0
KFR1 102307Z 18004KT 11/M09 A3023 RMK A01 T01071087  RH  025%=      5-min Rain = 0
KFR1 102308Z 18004KT 11/M09 A3023 RMK A01 T01061087  RH  025%=      5-min Rain = 0
KFR1 102309Z 17004KT 11/M09 A3023 RMK A01 T01061088  RH  025%=      5-min Rain = 0
KFR1 102310Z 17004KT 11/M09 A3023 RMK A01 T01061087  RH  025%=      5-min Rain = 0
KFR1 102311Z 17004KT 11/M09 A3023 RMK A01 T01051087  RH  025%=      5-min Rain = 0
KFR1 102312Z 17004KT 10/M09 A3023 RMK A01 T01041087  RH  025%=      5-min Rain = 0
KFR1 102313Z 17004KT 10/M09 A3023 RMK A01 T01041087  RH  025%=      5-min Rain = 0
KFR1 102314Z 17004KT 10/M09 A3023 RMK A01 T01031087  RH  025%=      5-min Rain = 0
KFR1 102315Z 17004KT 10/M09 A3023 RMK A01 T01031087  RH  025%=      5-min Rain = 0
KFR1 102316Z 17004KT 10/M09 A3023 RMK A01 T01021087  RH  026%=      5-min Rain = 0
KFR1 102317Z 17004KT 10/M09 A3023 RMK A01 T01011088  RH  026%=      5-min Rain = 0
KFR1 102318Z 17004KT 10/M09 A3023 RMK A01 T00991088  RH  026%=      5-min Rain = 0
KFR1 102319Z 17004KT 10/M09 A3023 RMK A01 T00981088  RH  026%=      5-min Rain = 0
KFR1 102320Z 17004KT 10/M09 A3023 RMK A01 T00981088  RH  026%=      5-min Rain = 0
KFR1 102321Z 17005KT 10/M09 A3023 RMK A01 T00971088  RH  026%=      5-min Rain = 0
KFR1 102322Z 17005KT 10/M09 A3023 RMK A01 T00951089  RH  026%=      5-min Rain = 0
KFR1 102323Z 17005KT 09/M09 A3023 RMK A01 T00941089  RH  027%=      5-min Rain = 0
KFR1 102324Z 17005KT 09/M09 A3023 RMK A01 T00931089  RH  027%=      5-min Rain = 0
KFR1 102325Z 17005KT 09/M09 A3023 RMK A01 T00921089  RH  027%=      5-min Rain = 0
KFR1 102326Z 17005KT 09/M09 A3023 RMK A01 T00921089  RH  027%=      5-min Rain = 0
KFR1 102327Z 17005KT 09/M09 A3023 RMK A01 T00911090  RH  027%=      5-min Rain = 0
KFR1 102328Z 17005KT 09/M09 A3023 RMK A01 T00911090  RH  027%=      5-min Rain = 0
KFR1 102329Z 18005KT 09/M09 A3023 RMK A01 T00911090  RH  027%=      5-min Rain = 0
KFR1 102330Z 17005KT 09/M09 A3023 RMK A01 T00911090  RH  027%=      5-min Rain = 0
KFR1 102331Z 17005KT 09/M09 A3023 RMK A01 T00901091  RH  027%=      5-min Rain = 0
KFR1 102332Z 17005KT 09/M09 A3023 RMK A01 T00901091  RH  027%=      5-min Rain = 0
KFR1 102333Z 17005KT 09/M09 A3023 RMK A01 T00901091  RH  027%=      5-min Rain = 0
KFR1 102334Z 17005KT 09/M09 A3022 RMK A01 T00891091  RH  027%=      5-min Rain = 0
KFR1 102335Z 17005KT 09/M09 A3022 RMK A01 T00891091  RH  027%=      5-min Rain = 0
KFR1 102336Z 17005KT 09/M09 A3022 RMK A01 T00891091  RH  027%=      5-min Rain = 0
KFR1 102337Z 17005KT 09/M09 A3022 RMK A01 T00901092  RH  027%=      5-min Rain = 0
KFR1 102338Z 16005KT 09/M09 A3022 RMK A01 T00901092  RH  027%=      5-min Rain = 0
KFR1 102339Z 16005KT 09/M09 A3022 RMK A01 T00901092  RH  027%=      5-min Rain = 0
KFR1 102340Z 17005KT 09/M09 A3022 RMK A01 T00901091  RH  027%=      5-min Rain = 0
KFR1 102341Z 17005KT 09/M09 A3022 RMK A01 T00901091  RH  027%=      5-min Rain = 0
KFR1 102342Z 17005KT 09/M09 A3022 RMK A01 T00901090  RH  027%=      5-min Rain = 0
KFR1 102343Z 17005KT 09/M09 A3022 RMK A01 T00891091  RH  027%=      5-min Rain = 0
KFR1 102344Z 17005KT 09/M09 A3022 RMK A01 T00891091  RH  027%=      5-min Rain = 0
KFR1 102345Z 17005KT 09/M09 A3022 RMK A01 T00881091  RH  027%=      5-min Rain = 0
KFR1 102346Z 17005KT 09/M09 A3022 RMK A01 T00881090  RH  027%=      5-min Rain = 0
KFR1 102347Z 17005KT 09/M09 A3022 RMK A01 T00871090  RH  028%=      5-min Rain = 0
KFR1 102348Z 17005KT 09/M09 A3023 RMK A01 T00861090  RH  028%=      5-min Rain = 0
KFR1 102349Z 16005KT 09/M09 A3023 RMK A01 T00861090  RH  028%=      5-min Rain = 0
KFR1 102350Z 17005KT 09/M09 A3023 RMK A01 T00851089  RH  028%=      5-min Rain = 0
KFR1 102351Z 17005KT 08/M09 A3023 RMK A01 T00831088  RH  029%=      5-min Rain = 0
KFR1 102352Z 17005KT 08/M09 A3022 RMK A01 T00821088  RH  029%=      5-min Rain = 0
KFR1 102353Z 16005KT 08/M09 A3022 RMK A01 T00821088  RH  029%=      5-min Rain = 0
KFR1 102354Z 16005KT 08/M09 A3022 RMK A01 T00821088  RH  029%=      5-min Rain = 0
KFR1 102355Z 16005KT 08/M09 A3022 RMK A01 T00821088  RH  029%=      5-min Rain = 0
KFR1 102356Z 16005KT 08/M09 A3022 RMK A01 T00821087  RH  029%=      5-min Rain = 0
KFR1 102357Z 16005KT 08/M09 A3022 RMK A01 T00821087  RH  029%=      5-min Rain = 0
KFR1 102358Z 16006KT 08/M09 A3022 RMK A01 T00821088  RH  029%=      5-min Rain = 0
KFR1 102359Z 16006KT 08/M09 A3022 RMK A01 T00831088  RH  029%=      5-min Rain = 0
KFR1 110000Z 16006KT 08/M09 A3022 RMK A01 T00831089  RH  029%=      5-min Rain = 0
KFR1 110001Z 16005KT 08/M09 A3022 RMK A01 T00821089  RH  029%=      5-min Rain = 0
KFR1 110002Z 16005KT 08/M09 A3022 RMK A01 T00811089  RH  029%=      5-min Rain = 0
KFR1 110003Z 16005KT 08/M09 A3022 RMK A01 T00811089  RH  029%=      5-min Rain = 0
KFR1 110004Z 16004KT 08/M09 A3022 RMK A01 T00801089  RH  029%=      5-min Rain = 0
KFR1 110005Z 16005KT 08/M09 A3022 RMK A01 T00801089  RH  029%=      5-min Rain = 0
KFR1 110006Z 16005KT 08/M09 A3022 RMK A01 T00811089  RH  029%=      5-min Rain = 0
KFR1 110007Z 16005KT 08/M09 A3023 RMK A01 T00811089  RH  029%=      5-min Rain = 0
KFR1 110008Z 16005KT 08/M09 A3023 RMK A01 T00811090  RH  029%=      5-min Rain = 0
KFR1 110009Z 16005KT 08/M09 A3023 RMK A01 T00791090  RH  029%=      5-min Rain = 0
KFR1 110010Z 16005KT 08/M09 A3023 RMK A01 T00781091  RH  029%=      5-min Rain = 0
KFR1 110011Z 17005KT 08/M09 A3023 RMK A01 T00771092  RH  029%=      5-min Rain = 0
KFR1 110012Z 17005KT 08/M09 A3023 RMK A01 T00761092  RH  029%=      5-min Rain = 0
KFR1 110013Z 16005KT 08/M09 A3023 RMK A01 T00761092  RH  029%=      5-min Rain = 0
KFR1 110014Z 17005KT 08/M09 A3023 RMK A01 T00751092  RH  029%=      5-min Rain = 0
KFR1 110015Z 16005KT 07/M09 A3023 RMK A01 T00741092  RH  030%=      5-min Rain = 0
KFR1 110016Z 16005KT 07/M09 A3023 RMK A01 T00741092  RH  030%=      5-min Rain = 0
KFR1 110017Z 16006KT 07/M09 A3023 RMK A01 T00731092  RH  030%=      5-min Rain = 0
KFR1 110018Z 16006KT 07/M09 A3023 RMK A01 T00721093  RH  030%=      5-min Rain = 0
KFR1 110019Z 16006KT 07/M09 A3023 RMK A01 T00711093  RH  030%=      5-min Rain = 0
KFR1 110020Z 16006KT 07/M09 A3023 RMK A01 T00701093  RH  030%=      5-min Rain = 0
KFR1 110021Z 16006KT 07/M09 A3023 RMK A01 T00711093  RH  030%=      5-min Rain = 0
KFR1 110022Z 16006KT 07/M09 A3023 RMK A01 T00711093  RH  030%=      5-min Rain = 0
KFR1 110023Z 16006KT 07/M09 A3023 RMK A01 T00711093  RH  030%=      5-min Rain = 0
KFR1 110024Z 16006KT 07/M09 A3023 RMK A01 T00711093  RH  030%=      5-min Rain = 0
KFR1 110025Z 16006KT 07/M09 A3023 RMK A01 T00711093  RH  030%=      5-min Rain = 0
KFR1 110026Z 16006KT 07/M09 A3023 RMK A01 T00711092  RH  030%=      5-min Rain = 0
KFR1 110027Z 17006KT 07/M09 A3023 RMK A01 T00711092  RH  030%=      5-min Rain = 0
KFR1 110028Z 16006KT 07/M09 A3023 RMK A01 T00701092  RH  031%=      5-min Rain = 0
KFR1 110029Z 16006KT 07/M09 A3023 RMK A01 T00691092  RH  031%=      5-min Rain = 0
KFR1 110030Z 16006KT 07/M09 A3023 RMK A01 T00671091  RH  031%=      5-min Rain = 0
KFR1 110031Z 17006KT 07/M09 A3023 RMK A01 T00651091  RH  032%=      5-min Rain = 0
KFR1 110032Z 16006KT 06/M09 A3023 RMK A01 T00641090  RH  032%=      5-min Rain = 0
KFR1 110033Z 16006KT 06/M09 A3023 RMK A01 T00641089  RH  032%=      5-min Rain = 0
KFR1 110034Z 16006KT 06/M09 A3022 RMK A01 T00631089  RH  033%=      5-min Rain = 0
KFR1 110035Z 16006KT 06/M09 A3022 RMK A01 T00621089  RH  033%=      5-min Rain = 0
KFR1 110036Z 16006KT 06/M09 A3022 RMK A01 T00611089  RH  033%=      5-min Rain = 0
KFR1 110037Z 16006KT 06/M09 A3022 RMK A01 T00611088  RH  033%=      5-min Rain = 0
KFR1 110038Z 16006KT 06/M09 A3022 RMK A01 T00621089  RH  033%=      5-min Rain = 0
KFR1 110039Z 16006KT 06/M09 A3022 RMK A01 T00631088  RH  033%=      5-min Rain = 0
KFR1 110040Z 17006KT 06/M09 A3022 RMK A01 T00631088  RH  033%=      5-min Rain = 0
KFR1 110041Z 16006KT 06/M09 A3022 RMK A01 T00621088  RH  033%=      5-min Rain = 0
KFR1 110042Z 16007KT 06/M09 A3022 RMK A01 T00621088  RH  033%=      5-min Rain = 0
KFR1 110043Z 16008KT 06/M09 A3022 RMK A01 T00621087  RH  033%=      5-min Rain = 0
KFR1 110044Z 16008KT 06/M09 A3022 RMK A01 T00621086  RH  034%=      5-min Rain = 0
KFR1 110045Z 16009KT 06/M09 A3022 RMK A01 T00631086  RH  034%=      5-min Rain = 0
KFR1 110046Z 16009KT 06/M09 A3022 RMK A01 T00631086  RH  033%=      5-min Rain = 0
KFR1 110047Z 16009KT 06/M09 A3022 RMK A01 T00641086  RH  033%=      5-min Rain = 0
KFR1 110048Z 16009KT 06/M09 A3022 RMK A01 T00641085  RH  034%=      5-min Rain = 0
KFR1 110049Z 16009KT 07/M08 A3022 RMK A01 T00651084  RH  034%=      5-min Rain = 0
KFR1 110050Z 16009KT 07/M08 A3022 RMK A01 T00651084  RH  034%=      5-min Rain = 0
KFR1 110051Z 16008KT 07/M08 A3022 RMK A01 T00651084  RH  034%=      5-min Rain = 0
KFR1 110052Z 16008KT 07/M08 A3022 RMK A01 T00651084  RH  034%=      5-min Rain = 0
KFR1 110053Z 16009KT 07/M08 A3022 RMK A01 T00651083  RH  034%=      5-min Rain = 0
KFR1 110054Z 16008KT 07/M08 A3022 RMK A01 T00651083  RH  034%=      5-min Rain = 0
KFR1 110055Z 16008KT 07/M08 A3022 RMK A01 T00651083  RH  034%=      5-min Rain = 0
KFR1 110056Z 16008KT 07/M08 A3022 RMK A01 T00651083  RH  034%=      5-min Rain = 0
KFR1 110057Z 16008KT 07/M08 A3022 RMK A01 T00651082  RH  034%=      5-min Rain = 0
KFR1 110058Z 16008KT 06/M08 A3022 RMK A01 T00641082  RH  034%=      5-min Rain = 0
KFR1 110059Z 16008KT 06/M08 A3022 RMK A01 T00621082  RH  035%=      5-min Rain = 0
KFR1 110100Z 16007KT 06/M08 A3022 RMK A01 T00621080  RH  035%=      5-min Rain = 0
KFR1 110101Z 16007KT 06/M08 A3022 RMK A01 T00611080  RH  035%=      5-min Rain = 0
KFR1 110102Z 16007KT 06/M08 A3022 RMK A01 T00611080  RH  036%=      5-min Rain = 0
KFR1 110103Z 16007KT 06/M08 A3022 RMK A01 T00601079  RH  036%=      5-min Rain = 0
KFR1 110104Z 17006KT 06/M08 A3022 RMK A01 T00591080  RH  036%=      5-min Rain = 0
KFR1 110105Z 17006KT 06/M08 A3022 RMK A01 T00581080  RH  036%=      5-min Rain = 0
KFR1 110106Z 17005KT 06/M08 A3022 RMK A01 T00581079  RH  037%=      5-min Rain = 0
KFR1 110107Z 17005KT 06/M08 A3022 RMK A01 T00581079  RH  037%=      5-min Rain = 0
KFR1 110108Z 17005KT 06/M08 A3022 RMK A01 T00581079  RH  037%=      5-min Rain = 0
KFR1 110109Z 17006KT 06/M08 A3022 RMK A01 T00581079  RH  037%=      5-min Rain = 0
KFR1 110110Z 16006KT 06/M08 A3022 RMK A01 T00581079  RH  037%=      5-min Rain = 0
KFR1 110111Z 16006KT 06/M08 A3022 RMK A01 T00571079  RH  037%=      5-min Rain = 0
KFR1 110112Z 16006KT 06/M08 A3022 RMK A01 T00581078  RH  037%=      5-min Rain = 0
KFR1 110113Z 16006KT 06/M08 A3022 RMK A01 T00581078  RH  037%=      5-min Rain = 0
KFR1 110114Z 16006KT 06/M08 A3022 RMK A01 T00581078  RH  037%=      5-min Rain = 0
KFR1 110115Z 16006KT 06/M08 A3022 RMK A01 T00571078  RH  037%=      5-min Rain = 0
KFR1 110116Z 17007KT 06/M08 A3022 RMK A01 T00571078  RH  037%=      5-min Rain = 0
KFR1 110117Z 16006KT 06/M08 A3022 RMK A01 T00561079  RH  037%=      5-min Rain = 0
KFR1 110118Z 17007KT 06/M08 A3022 RMK A01 T00561078  RH  037%=      5-min Rain = 0
KFR1 110119Z 16007KT 06/M08 A3022 RMK A01 T00561078  RH  038%=      5-min Rain = 0
KFR1 110120Z 16007KT 06/M08 A3022 RMK A01 T00551078  RH  037%=      5-min Rain = 0
KFR1 110121Z 16007KT 06/M08 A3022 RMK A01 T00561078  RH  037%=      5-min Rain = 0
KFR1 110122Z 16006KT 06/M08 A3022 RMK A01 T00571078  RH  037%=      5-min Rain = 0
KFR1 110123Z 16006KT 06/M08 A3022 RMK A01 T00571078  RH  037%=      5-min Rain = 0
KFR1 110124Z 16007KT 06/M08 A3022 RMK A01 T00571079  RH  037%=      5-min Rain = 0
KFR1 110125Z 16007KT 06/M08 A3022 RMK A01 T00571079  RH  037%=      5-min Rain = 0
KFR1 110126Z 16007KT 06/M08 A3022 RMK A01 T00571079  RH  037%=      5-min Rain = 0
KFR1 110127Z 16008KT 06/M08 A3022 RMK A01 T00581078  RH  037%=      5-min Rain = 0
KFR1 110128Z 16007KT 06/M08 A3022 RMK A01 T00581078  RH  037%=      5-min Rain = 0
KFR1 110129Z 16007KT 06/M08 A3022 RMK A01 T00571078  RH  037%=      5-min Rain = 0
KFR1 110130Z 16007KT 06/M08 A3022 RMK A01 T00571078  RH  037%=      5-min Rain = 0
KFR1 110131Z 16008KT 06/M08 A3022 RMK A01 T00571077  RH  038%=      5-min Rain = 0
KFR1 110132Z 16008KT 06/M08 A3022 RMK A01 T00581075  RH  038%=      5-min Rain = 0
KFR1 110133Z 16006KT 06/M08 A3022 RMK A01 T00581075  RH  038%=      5-min Rain = 0
KFR1 110134Z 16007KT 06/M07 A3022 RMK A01 T00581074  RH  038%=      5-min Rain = 0
KFR1 110135Z 17007KT 06/M07 A3022 RMK A01 T00581072  RH  039%=      5-min Rain = 0
KFR1 110136Z 16006KT 06/M07 A3022 RMK A01 T00581071  RH  039%=      5-min Rain = 0
KFR1 110137Z 16005KT 06/M07 A3022 RMK A01 T00581070  RH  039%=      5-min Rain = 0
KFR1 110138Z 15006KT 06/M07 A3022 RMK A01 T00581069  RH  039%=      5-min Rain = 0
KFR1 110139Z 15006KT 06/M07 A3022 RMK A01 T00581068  RH  040%=      5-min Rain = 0
KFR1 110140Z 15005KT 06/M07 A3022 RMK A01 T00581068  RH  040%=      5-min Rain = 0
KFR1 110141Z 16005KT 06/M07 A3022 RMK A01 T00581066  RH  040%=      5-min Rain = 0
KFR1 110142Z 16005KT 06/M07 A3022 RMK A01 T00581066  RH  041%=      5-min Rain = 0
KFR1 110143Z 16005KT 06/M07 A3022 RMK A01 T00581065  RH  041%=      5-min Rain = 0
KFR1 110144Z 16005KT 06/M06 A3022 RMK A01 T00581064  RH  041%=      5-min Rain = 0
KFR1 110145Z 16003KT 06/M06 A3022 RMK A01 T00571063  RH  042%=      5-min Rain = 0
KFR1 110146Z 17003KT 06/M06 A3022 RMK A01 T00571063  RH  042%=      5-min Rain = 0
KFR1 110147Z 16003KT 06/M06 A3022 RMK A01 T00561063  RH  042%=      5-min Rain = 0
KFR1 110148Z 16004KT 06/M06 A3022 RMK A01 T00551063  RH  042%=      5-min Rain = 0
KFR1 110149Z 17004KT 06/M06 A3022 RMK A01 T00551063  RH  043%=      5-min Rain = 0
KFR1 110150Z 17003KT 05/M06 A3022 RMK A01 T00541062  RH  043%=      5-min Rain = 0
KFR1 110151Z 17005KT 05/M06 A3022 RMK A01 T00531062  RH  043%=      5-min Rain = 0
KFR1 110152Z 18007KT 05/M06 A3022 RMK A01 T00531062  RH  043%=      5-min Rain = 0
KFR1 110153Z 19007KT 05/M06 A3022 RMK A01 T00531063  RH  043%=      5-min Rain = 0
KFR1 110154Z 20006KT 05/M06 A3022 RMK A01 T00531063  RH  043%=      5-min Rain = 0
KFR1 110155Z 19006KT 05/M06 A3022 RMK A01 T00521063  RH  043%=      5-min Rain = 0
KFR1 110156Z 20007KT 05/M06 A3022 RMK A01 T00521064  RH  043%=      5-min Rain = 0
KFR1 110157Z 21006KT 05/M07 A3022 RMK A01 T00511065  RH  043%=      5-min Rain = 0
KFR1 110158Z 21006KT 05/M07 A3022 RMK A01 T00491065  RH  043%=      5-min Rain = 0
KFR1 110159Z 21005KT 05/M07 A3022 RMK A01 T00471065  RH  044%=      5-min Rain = 0
KFR1 110200Z 20005KT 05/M06 A3022 RMK A01 T00461064  RH  045%=      5-min Rain = 0
KFR1 110201Z 19004KT 05/M06 A3022 RMK A01 T00451064  RH  045%=      5-min Rain = 0
KFR1 110202Z 19005KT 05/M06 A3022 RMK A01 T00451064  RH  045%=      5-min Rain = 0
KFR1 110203Z 18006KT 05/M06 A3022 RMK A01 T00451064  RH  045%=      5-min Rain = 0
KFR1 110204Z 18005KT 05/M06 A3022 RMK A01 T00451064  RH  045%=      5-min Rain = 0
KFR1 110205Z 18005KT 04/M06 A3022 RMK A01 T00441064  RH  045%=      5-min Rain = 0
KFR1 110206Z 18006KT 04/M07 A3022 RMK A01 T00431065  RH  046%=      5-min Rain = 0
KFR1 110207Z 19007KT 04/M06 A3022 RMK A01 T00421064  RH  046%=      5-min Rain = 0
KFR1 110208Z 19007KT 04/M06 A3022 RMK A01 T00411063  RH  046%=      5-min Rain = 0
KFR1 110209Z 19007KT 04/M06 A3022 RMK A01 T00411063  RH  047%=      5-min Rain = 0
KFR1 110210Z 19008KT 04/M06 A3022 RMK A01 T00411062  RH  047%=      5-min Rain = 0
KFR1 110211Z 19008KT 04/M06 A3022 RMK A01 T00411061  RH  047%=      5-min Rain = 0
KFR1 110212Z 19008KT 04/M06 A3022 RMK A01 T00411061  RH  048%=      5-min Rain = 0
KFR1 110213Z 19008KT 04/M06 A3022 RMK A01 T00411060  RH  048%=      5-min Rain = 0
KFR1 110214Z 19008KT 04/M06 A3022 RMK A01 T00411059  RH  048%=      5-min Rain = 0
KFR1 110215Z 19008KT 04/M06 A3022 RMK A01 T00411059  RH  048%=      5-min Rain = 0
KFR1 110216Z 19008KT 04/M06 A3022 RMK A01 T00401058  RH  049%=      5-min Rain = 0
KFR1 110217Z 18007KT 04/M06 A3022 RMK A01 T00401058  RH  049%=      5-min Rain = 0
KFR1 110218Z 18007KT 04/M06 A3022 RMK A01 T00391058  RH  049%=      5-min Rain = 0
KFR1 110219Z 19007KT 04/M06 A3022 RMK A01 T00381056  RH  050%=      5-min Rain = 0
KFR1 110220Z 19007KT 04/M06 A3022 RMK A01 T00391056  RH  050%=      5-min Rain = 0
KFR1 110221Z 19007KT 04/M06 A3022 RMK A01 T00391055  RH  050%=      5-min Rain = 0
KFR1 110222Z 19006KT 04/M06 A3022 RMK A01 T00381055  RH  051%=      5-min Rain = 0
KFR1 110223Z 20007KT 04/M05 A3022 RMK A01 T00381054  RH  051%=      5-min Rain = 0
KFR1 110224Z 20006KT 04/M05 A3022 RMK A01 T00381052  RH  052%=      5-min Rain = 0
KFR1 110225Z 20006KT 04/M05 A3022 RMK A01 T00381051  RH  052%=      5-min Rain = 0
KFR1 110226Z 20006KT 04/M05 A3022 RMK A01 T00381049  RH  053%=      5-min Rain = 0
KFR1 110227Z 19006KT 04/M05 A3022 RMK A01 T00391047  RH  054%=      5-min Rain = 0
KFR1 110228Z 20008KT 04/M05 A3022 RMK A01 T00391045  RH  054%=      5-min Rain = 0
KFR1 110229Z 20008KT 04/M04 A3022 RMK A01 T00391043  RH  055%=      5-min Rain = 0
KFR1 110230Z 20008KT 04/M04 A3022 RMK A01 T00401041  RH  056%=      5-min Rain = 0
KFR1 110231Z 20008KT 04/M04 A3022 RMK A01 T00411039  RH  056%=      5-min Rain = 0
KFR1 110232Z 19008KT 04/M04 A3022 RMK A01 T00411037  RH  057%=      5-min Rain = 0
KFR1 110233Z 20009KT 04/M04 A3022 RMK A01 T00421036  RH  057%=      5-min Rain = 0
KFR1 110234Z 19009KT 04/M03 A3022 RMK A01 T00431034  RH  057%=      5-min Rain = 0
KFR1 110235Z 19009KT 04/M03 A3022 RMK A01 T00431032  RH  058%=      5-min Rain = 0
KFR1 110236Z 19009KT 04/M03 A3022 RMK A01 T00431030  RH  059%=      5-min Rain = 0
KFR1 110237Z 19009KT 04/M03 A3022 RMK A01 T00441029  RH  059%=      5-min Rain = 0
KFR1 110238Z 19008KT 04/M03 A3022 RMK A01 T00441027  RH  060%=      5-min Rain = 0
KFR1 110239Z 19008KT 04/M03 A3021 RMK A01 T00431027  RH  060%=      5-min Rain = 0
KFR1 110240Z 19008KT 04/M03 A3021 RMK A01 T00441026  RH  060%=      5-min Rain = 0
KFR1 110241Z 19008KT 04/M03 A3021 RMK A01 T00431026  RH  061%=      5-min Rain = 0
KFR1 110242Z 19009KT 04/M03 A3022 RMK A01 T00431025  RH  062%=      5-min Rain = 0
KFR1 110243Z 20008KT 04/M02 A3022 RMK A01 T00431022  RH  063%=      5-min Rain = 0
KFR1 110244Z 20008KT 05/M02 A3022 RMK A01 T00451020  RH  063%=      5-min Rain = 0
KFR1 110245Z 19007KT 05/M02 A3022 RMK A01 T00451019  RH  063%=      5-min Rain = 0
KFR1 110246Z 19007KT 05/M02 A3022 RMK A01 T00461018  RH  063%=      5-min Rain = 0
KFR1 110247Z 20007KT 05/M02 A3022 RMK A01 T00461017  RH  063%=      5-min Rain = 0
KFR1 110248Z 20007KT 05/M02 A3022 RMK A01 T00471015  RH  064%=      5-min Rain = 0
KFR1 110249Z 20007KT 05/M01 A3022 RMK A01 T00481014  RH  064%=      5-min Rain = 0
KFR1 110250Z 20008KT 05/M01 A3022 RMK A01 T00491013  RH  064%=      5-min Rain = 0
KFR1 110251Z 21007KT 05/M01 A3022 RMK A01 T00491013  RH  064%=      5-min Rain = 0
KFR1 110252Z 21007KT 05/M01 A3022 RMK A01 T00491013  RH  064%=      5-min Rain = 0
KFR1 110253Z 21006KT 05/M01 A3022 RMK A01 T00491013  RH  064%=      5-min Rain = 0
KFR1 110254Z 22007KT 05/M01 A3022 RMK A01 T00481012  RH  065%=      5-min Rain = 0
KFR1 110255Z 22006KT 05/M01 A3022 RMK A01 T00471014  RH  065%=      5-min Rain = 0
KFR1 110256Z 23006KT 05/M02 A3022 RMK A01 T00461017  RH  064%=      5-min Rain = 0
KFR1 110257Z 23005KT 04/M02 A3022 RMK A01 T00441019  RH  063%=      5-min Rain = 0
KFR1 110258Z 24006KT 04/M02 A3022 RMK A01 T00421021  RH  063%=      5-min Rain = 0
KFR1 110259Z 24006KT 04/M02 A3022 RMK A01 T00401022  RH  064%=      5-min Rain = 0
KFR1 110300Z 23006KT 04/M02 A3022 RMK A01 T00381022  RH  065%=      5-min Rain = 0
KFR1 110301Z 22007KT 04/M02 A3022 RMK A01 T00371020  RH  066%=      5-min Rain = 0
KFR1 110302Z 22008KT 04/M02 A3022 RMK A01 T00381018  RH  067%=      5-min Rain = 0
KFR1 110303Z 22008KT 04/M02 A3022 RMK A01 T00391017  RH  067%=      5-min Rain = 0
KFR1 110304Z 22009KT 04/M02 A3022 RMK A01 T00401016  RH  067%=      5-min Rain = 0
KFR1 110305Z 21009KT 04/M01 A3022 RMK A01 T00421014  RH  067%=      5-min Rain = 0
KFR1 110306Z 20009KT 04/M01 A3022 RMK A01 T00441013  RH  067%=      5-min Rain = 0
KFR1 110307Z 20009KT 05/M01 A3022 RMK A01 T00451012  RH  066%=      5-min Rain = 0
KFR1 110308Z 20009KT 05/M01 A3022 RMK A01 T00461012  RH  066%=      5-min Rain = 0
KFR1 110309Z 19009KT 05/M01 A3022 RMK A01 T00451013  RH  066%=      5-min Rain = 0
KFR1 110310Z 20008KT 05/M01 A3022 RMK A01 T00451012  RH  066%=      5-min Rain = 0
KFR1 110311Z 20009KT 05/M01 A3022 RMK A01 T00451012  RH  067%=      5-min Rain = 0
KFR1 110312Z 20008KT 05/M01 A3022 RMK A01 T00451011  RH  067%=      5-min Rain = 0
KFR1 110313Z 21009KT 05/M01 A3022 RMK A01 T00461011  RH  067%=      5-min Rain = 0
KFR1 110314Z 20010KT 05/M01 A3022 RMK A01 T00461011  RH  067%=      5-min Rain = 0
KFR1 110315Z 20009KT 05/M01 A3022 RMK A01 T00461011  RH  067%=      5-min Rain = 0
KFR1 110316Z 20009KT 05/M01 A3022 RMK A01 T00461011  RH  067%=      5-min Rain = 0
KFR1 110317Z 20010KT 05/M01 A3022 RMK A01 T00451011  RH  067%=      5-min Rain = 0
KFR1 110318Z 20009KT 04/M01 A3022 RMK A01 T00441011  RH  067%=      5-min Rain = 0
KFR1 110319Z 19011KT 04/M01 A3022 RMK A01 T00431011  RH  068%=      5-min Rain = 0
KFR1 110320Z 19010KT 04/M01 A3022 RMK A01 T00431011  RH  068%=      5-min Rain = 0
KFR1 110321Z 19010KT 04/M01 A3022 RMK A01 T00441011  RH  068%=      5-min Rain = 0
KFR1 110322Z 19010KT 04/M01 A3022 RMK A01 T00431011  RH  068%=      5-min Rain = 0
KFR1 110323Z 19009KT 04/M01 A3021 RMK A01 T00421012  RH  068%=      5-min Rain = 0
KFR1 110324Z 19010KT 04/M01 A3021 RMK A01 T00411011  RH  069%=      5-min Rain = 0
KFR1 110325Z 19011KT 04/M01 A3021 RMK A01 T00401012  RH  069%=      5-min Rain = 0
KFR1 110326Z 19011KT 04/M01 A3021 RMK A01 T00401011  RH  069%=      5-min Rain = 0
KFR1 110327Z 19011KT 04/M01 A3021 RMK A01 T00411010  RH  069%=      5-min Rain = 0
KFR1 110328Z 19011KT 04/M01 A3021 RMK A01 T00411011  RH  069%=      5-min Rain = 0
KFR1 110329Z 19011KT 04/M01 A3021 RMK A01 T00411010  RH  069%=      5-min Rain = 0
KFR1 110330Z 19011KT 04/M01 A3021 RMK A01 T00421009  RH  069%=      5-min Rain = 0
KFR1 110331Z 19010KT 04/M01 A3021 RMK A01 T00431009  RH  069%=      5-min Rain = 0
KFR1 110332Z 20010KT 04/M01 A3021 RMK A01 T00431009  RH  069%=      5-min Rain = 0
KFR1 110333Z 20010KT 04/M01 A3021 RMK A01 T00431009  RH  069%=      5-min Rain = 0
KFR1 110334Z 20008KT 04/M01 A3021 RMK A01 T00431009  RH  069%=      5-min Rain = 0
KFR1 110335Z 20010KT 04/M01 A3021 RMK A01 T00441009  RH  069%=      5-min Rain = 0
KFR1 110336Z 20010KT 04/M01 A3021 RMK A01 T00441009  RH  069%=      5-min Rain = 0
KFR1 110337Z 21010KT 04/M01 A3021 RMK A01 T00441009  RH  068%=      5-min Rain = 0
KFR1 110338Z 20010KT 04/M01 A3021 RMK A01 T00441009  RH  068%=      5-min Rain = 0
KFR1 110339Z 21010KT 04/M01 A3021 RMK A01 T00441008  RH  069%=      5-min Rain = 0
KFR1 110340Z 21011KT 04/M01 A3021 RMK A01 T00441009  RH  069%=      5-min Rain = 0
KFR1 110341Z 21012KT 04/M01 A3021 RMK A01 T00441008  RH  069%=      5-min Rain = 0
KFR1 110342Z 21012KT 04/M01 A3021 RMK A01 T00441009  RH  069%=      5-min Rain = 0
KFR1 110343Z 21012KT 04/M01 A3021 RMK A01 T00441009  RH  068%=      5-min Rain = 0
KFR1 110344Z 20013KT 05/M01 A3021 RMK A01 T00451009  RH  068%=      5-min Rain = 0
KFR1 110345Z 20012KT 05/M01 A3021 RMK A01 T00451009  RH  068%=      5-min Rain = 0
KFR1 110346Z 20011KT 05/M01 A3021 RMK A01 T00451009  RH  068%=      5-min Rain = 0
KFR1 110347Z 20012KT 04/M01 A3021 RMK A01 T00441010  RH  068%=      5-min Rain = 0
KFR1 110348Z 20012KT 04/M01 A3021 RMK A01 T00441009  RH  068%=      5-min Rain = 0
KFR1 110349Z 20012KT 04/M01 A3021 RMK A01 T00441010  RH  068%=      5-min Rain = 0
KFR1 110350Z 20011KT 04/M01 A3021 RMK A01 T00431010  RH  068%=      5-min Rain = 0
KFR1 110351Z 20011KT 04/M01 A3021 RMK A01 T00421011  RH  069%=      5-min Rain = 0
KFR1 110352Z 21011KT 04/M01 A3021 RMK A01 T00421011  RH  069%=      5-min Rain = 0
KFR1 110353Z 20011KT 04/M01 A3021 RMK A01 T00411011  RH  069%=      5-min Rain = 0
KFR1 110354Z 21012KT 04/M01 A3021 RMK A01 T00411011  RH  069%=      5-min Rain = 0
KFR1 110355Z 20012KT 04/M01 A3021 RMK A01 T00411011  RH  069%=      5-min Rain = 0
KFR1 110356Z 20011KT 04/M01 A3021 RMK A01 T00411011  RH  069%=      5-min Rain = 0
KFR1 110357Z 21011KT 04/M01 A3022 RMK A01 T00411011  RH  069%=      5-min Rain = 0
KFR1 110358Z 21011KT 04/M01 A3022 RMK A01 T00401011  RH  069%=      5-min Rain = 0
KFR1 110359Z 21011KT 04/M01 A3021 RMK A01 T00401011  RH  069%=      5-min Rain = 0
KFR1 110400Z 21012KT 04/M01 A3021 RMK A01 T00411011  RH  069%=      5-min Rain = 0
KFR1 110401Z 21012KT 04/M01 A3021 RMK A01 T00411012  RH  068%=      5-min Rain = 0
KFR1 110402Z 21011KT 04/M01 A3021 RMK A01 T00421012  RH  068%=      5-min Rain = 0
KFR1 110403Z 21011KT 04/M01 A3021 RMK A01 T00421012  RH  068%=      5-min Rain = 0
KFR1 110404Z 21011KT 04/M01 A3021 RMK A01 T00411012  RH  068%=      5-min Rain = 0
KFR1 110405Z 21012KT 04/M01 A3021 RMK A01 T00411013  RH  068%=      5-min Rain = 0
KFR1 110406Z 22013KT 04/M01 A3021 RMK A01 T00411012  RH  068%=      5-min Rain = 0
KFR1 110407Z 22013KT 04/M01 A3021 RMK A01 T00411013  RH  068%=      5-min Rain = 0
KFR1 110408Z 21012KT 04/M01 A3021 RMK A01 T00411013  RH  068%=      5-min Rain = 0
KFR1 110409Z 21012KT 04/M01 A3021 RMK A01 T00411013  RH  068%=      5-min Rain = 0
KFR1 110410Z 21012KT 04/M01 A3021 RMK A01 T00401014  RH  068%=      5-min Rain = 0
KFR1 110411Z 21012KT 04/M01 A3021 RMK A01 T00391014  RH  068%=      5-min Rain = 0
KFR1 110412Z 21012KT 04/M01 A3021 RMK A01 T00391014  RH  068%=      5-min Rain = 0
KFR1 110413Z 21012KT 04/M01 A3021 RMK A01 T00391014  RH  068%=      5-min Rain = 0
KFR1 110414Z 21012KT 04/M01 A3021 RMK A01 T00391014  RH  068%=      5-min Rain = 0
KFR1 110415Z 21011KT 04/M01 A3021 RMK A01 T00391014  RH  068%=      5-min Rain = 0
KFR1 110416Z 21012KT 04/M02 A3021 RMK A01 T00381015  RH  068%=      5-min Rain = 0
KFR1 110417Z 21012KT 04/M01 A3021 RMK A01 T00381014  RH  068%=      5-min Rain = 0
KFR1 110418Z 21012KT 04/M02 A3021 RMK A01 T00381015  RH  069%=      5-min Rain = 0
KFR1 110419Z 21011KT 04/M02 A3021 RMK A01 T00371015  RH  069%=      5-min Rain = 0
KFR1 110420Z 21012KT 04/M02 A3021 RMK A01 T00371015  RH  069%=      5-min Rain = 0
KFR1 110421Z 21011KT 04/M02 A3021 RMK A01 T00361015  RH  069%=      5-min Rain = 0
KFR1 110422Z 21011KT 04/M02 A3021 RMK A01 T00351016  RH  069%=      5-min Rain = 0
KFR1 110423Z 21011KT 04/M02 A3022 RMK A01 T00361015  RH  069%=      5-min Rain = 0
KFR1 110424Z 21011KT 04/M02 A3022 RMK A01 T00351016  RH  069%=      5-min Rain = 0
KFR1 110425Z 22011KT 04/M02 A3022 RMK A01 T00351015  RH  069%=      5-min Rain = 0
KFR1 110426Z 22012KT 04/M02 A3022 RMK A01 T00351016  RH  069%=      5-min Rain = 0
KFR1 110427Z 21012KT 04/M02 A3022 RMK A01 T00351015  RH  070%=      5-min Rain = 0
KFR1 110428Z 21011KT 04/M02 A3022 RMK A01 T00351015  RH  070%=      5-min Rain = 0
KFR1 110429Z 22011KT 03/M02 A3022 RMK A01 T00341016  RH  070%=      5-min Rain = 0
KFR1 110430Z 22011KT 03/M02 A3022 RMK A01 T00341016  RH  070%=      5-min Rain = 0
KFR1 110431Z 22011KT 03/M02 A3022 RMK A01 T00331016  RH  070%=      5-min Rain = 0
KFR1 110432Z 22011KT 03/M02 A3022 RMK A01 T00331016  RH  070%=      5-min Rain = 0
KFR1 110433Z 22011KT 03/M02 A3022 RMK A01 T00321016  RH  070%=      5-min Rain = 0
KFR1 110434Z 22012KT 03/M02 A3022 RMK A01 T00321017  RH  070%=      5-min Rain = 0
KFR1 110435Z 21013KT 03/M02 A3022 RMK A01 T00331016  RH  070%=      5-min Rain = 0
KFR1 110436Z 21012KT 03/M02 A3022 RMK A01 T00331016  RH  070%=      5-min Rain = 0
KFR1 110437Z 21013KT 03/M02 A3021 RMK A01 T00341016  RH  070%=      5-min Rain = 0
KFR1 110438Z 21012KT 03/M02 A3021 RMK A01 T00341015  RH  070%=      5-min Rain = 0
KFR1 110439Z 21011KT 04/M02 A3021 RMK A01 T00351016  RH  070%=      5-min Rain = 0
KFR1 110440Z 22012KT 03/M02 A3021 RMK A01 T00341016  RH  070%=      5-min Rain = 0
KFR1 110441Z 21013KT 03/M02 A3021 RMK A01 T00341016  RH  070%=      5-min Rain = 0
KFR1 110442Z 21013KT 04/M02 A3021 RMK A01 T00351015  RH  070%=      5-min Rain = 0
KFR1 110443Z 21012KT 04/M02 A3021 RMK A01 T00351016  RH  069%=      5-min Rain = 0
KFR1 110444Z 22012KT 03/M02 A3021 RMK A01 T00341016  RH  070%=      5-min Rain = 0
KFR1 110445Z 22012KT 03/M02 A3021 RMK A01 T00341016  RH  070%=      5-min Rain = 0
KFR1 110446Z 22012KT 03/M02 A3021 RMK A01 T00341016  RH  070%=      5-min Rain = 0
KFR1 110447Z 22012KT 03/M02 A3021 RMK A01 T00341016  RH  070%=      5-min Rain = 0
KFR1 110448Z 22013KT 03/M02 A3022 RMK A01 T00331016  RH  070%=      5-min Rain = 0
KFR1 110449Z 22012KT 03/M02 A3022 RMK A01 T00331017  RH  070%=      5-min Rain = 0
KFR1 110450Z 22012KT 03/M02 A3022 RMK A01 T00331017  RH  070%=      5-min Rain = 0
KFR1 110451Z 22013KT 03/M02 A3022 RMK A01 T00331017  RH  070%=      5-min Rain = 0
KFR1 110452Z 22013KT 03/M02 A3022 RMK A01 T00331017  RH  070%=      5-min Rain = 0
KFR1 110453Z 22013KT 03/M02 A3022 RMK A01 T00321017  RH  070%=      5-min Rain = 0
KFR1 110454Z 22012KT 03/M02 A3022 RMK A01 T00321017  RH  070%=      5-min Rain = 0
KFR1 110455Z 22011KT 03/M02 A3022 RMK A01 T00311018  RH  070%=      5-min Rain = 0
KFR1 110456Z 21012KT 03/M02 A3022 RMK A01 T00311017  RH  070%=      5-min Rain = 0
KFR1 110457Z 22012KT 03/M02 A3022 RMK A01 T00311018  RH  071%=      5-min Rain = 0
KFR1 110458Z 21011KT 03/M02 A3021 RMK A01 T00311017  RH  071%=      5-min Rain = 0
KFR1 110459Z 21011KT 03/M02 A3021 RMK A01 T00301018  RH  071%=      5-min Rain = 0
KFR1 110500Z 21012KT 03/M02 A3021 RMK A01 T00301018  RH  071%=      5-min Rain = 0
KFR1 110501Z 21011KT 03/M02 A3021 RMK A01 T00291018  RH  071%=      5-min Rain = 0
KFR1 110502Z 21012KT 03/M02 A3021 RMK A01 T00291018  RH  071%=      5-min Rain = 0
KFR1 110503Z 21012KT 03/M02 A3021 RMK A01 T00291018  RH  071%=      5-min Rain = 0
KFR1 110504Z 21012KT 03/M02 A3021 RMK A01 T00281018  RH  071%=      5-min Rain = 0
KFR1 110505Z 21012KT 03/M02 A3021 RMK A01 T00281018  RH  072%=      5-min Rain = 0
KFR1 110506Z 21013KT 03/M02 A3021 RMK A01 T00281018  RH  072%=      5-min Rain = 0
KFR1 110507Z 21013KT 03/M02 A3021 RMK A01 T00281018  RH  072%=      5-min Rain = 0
KFR1 110508Z 21013KT 03/M02 A3021 RMK A01 T00281018  RH  071%=      5-min Rain = 0
KFR1 110509Z 21013KT 03/M02 A3021 RMK A01 T00281018  RH  071%=      5-min Rain = 0
KFR1 110510Z 21013KT 03/M02 A3021 RMK A01 T00291018  RH  071%=      5-min Rain = 0
KFR1 110511Z 21013KT 03/M02 A3021 RMK A01 T00281019  RH  071%=      5-min Rain = 0
KFR1 110512Z 21013KT 03/M02 A3021 RMK A01 T00281018  RH  071%=      5-min Rain = 0
KFR1 110513Z 21012KT 03/M02 A3021 RMK A01 T00281018  RH  071%=      5-min Rain = 0
KFR1 110514Z 21012KT 03/M02 A3021 RMK A01 T00281019  RH  071%=      5-min Rain = 0
KFR1 110515Z 21013KT 03/M02 A302 RMK A01 T00271019  RH  072%=      5-min Rain = 0
KFR1 110516Z 21013KT 03/M02 A302 RMK A01 T00271019  RH  072%=      5-min Rain = 0
KFR1 110517Z 21013KT 03/M02 A302 RMK A01 T00271019  RH  072%=      5-min Rain = 0
KFR1 110518Z 21013KT 03/M02 A302 RMK A01 T00271019  RH  072%=      5-min Rain = 0
KFR1 110519Z 22012KT 03/M02 A302 RMK A01 T00271019  RH  072%=      5-min Rain = 0
KFR1 110520Z 21012KT 03/M02 A302 RMK A01 T00261020  RH  072%=      5-min Rain = 0
KFR1 110521Z 21012KT 03/M02 A302 RMK A01 T00261020  RH  072%=      5-min Rain = 0
KFR1 110522Z 21012KT 03/M02 A302 RMK A01 T00261020  RH  072%=      5-min Rain = 0
KFR1 110523Z 21013KT 03/M02 A302 RMK A01 T00251020  RH  072%=      5-min Rain = 0
KFR1 110524Z 21012KT 03/M02 A302 RMK A01 T00251020  RH  072%=      5-min Rain = 0
KFR1 110525Z 21012KT 03/M02 A302 RMK A01 T00251020  RH  072%=      5-min Rain = 0
KFR1 110526Z 21012KT 03/M02 A302 RMK A01 T00251021  RH  072%=      5-min Rain = 0
KFR1 110527Z 21013KT 03/M02 A302 RMK A01 T00251021  RH  072%=      5-min Rain = 0
KFR1 110528Z 21013KT 02/M02 A302 RMK A01 T00241021  RH  072%=      5-min Rain = 0
KFR1 110529Z 21014KT 02/M02 A302 RMK A01 T00241021  RH  072%=      5-min Rain = 0
KFR1 110530Z 21013KT 02/M02 A302 RMK A01 T00241021  RH  072%=      5-min Rain = 0
KFR1 110531Z 21012KT 02/M02 A302 RMK A01 T00241022  RH  072%=      5-min Rain = 0
KFR1 110532Z 21012KT 02/M02 A302 RMK A01 T00241022  RH  072%=      5-min Rain = 0
KFR1 110533Z 21012KT 02/M02 A302 RMK A01 T00241022  RH  072%=      5-min Rain = 0
KFR1 110534Z 21013KT 02/M02 A302 RMK A01 T00241022  RH  072%=      5-min Rain = 0
KFR1 110535Z 21013KT 02/M02 A302 RMK A01 T00241022  RH  072%=      5-min Rain = 0
KFR1 110536Z 21011KT 02/M02 A302 RMK A01 T00241022  RH  071%=      5-min Rain = 0
KFR1 110537Z 21011KT 02/M02 A302 RMK A01 T00241023  RH  071%=      5-min Rain = 0
KFR1 110538Z 21011KT 02/M02 A302 RMK A01 T00231023  RH  071%=      5-min Rain = 0
KFR1 110539Z 22012KT 02/M02 A302 RMK A01 T00241023  RH  071%=      5-min Rain = 0
KFR1 110540Z 22011KT 03/M02 A302 RMK A01 T00251023  RH  071%=      5-min Rain = 0
KFR1 110541Z 22011KT 03/M02 A3019 RMK A01 T00251024  RH  070%=      5-min Rain = 0
KFR1 110542Z 22011KT 02/M02 A3019 RMK A01 T00241024  RH  070%=      5-min Rain = 0
KFR1 110543Z 22011KT 02/M02 A302 RMK A01 T00241024  RH  071%=      5-min Rain = 0
KFR1 110544Z 22010KT 02/M02 A302 RMK A01 T00241024  RH  071%=      5-min Rain = 0
KFR1 110545Z 22010KT 02/M02 A302 RMK A01 T00241024  RH  071%=      5-min Rain = 0
KFR1 110546Z 22010KT 02/M03 A302 RMK A01 T00231025  RH  071%=      5-min Rain = 0
KFR1 110547Z 22010KT 02/M03 A302 RMK A01 T00221026  RH  071%=      5-min Rain = 0
KFR1 110548Z 22011KT 02/M03 A302 RMK A01 T00221025  RH  071%=      5-min Rain = 0
KFR1 110549Z 22011KT 02/M03 A302 RMK A01 T00221025  RH  071%=      5-min Rain = 0
KFR1 110550Z 22010KT 02/M03 A302 RMK A01 T00231026  RH  070%=      5-min Rain = 0
KFR1 110551Z 22010KT 02/M03 A3019 RMK A01 T00221026  RH  070%=      5-min Rain = 0
KFR1 110552Z 22010KT 02/M03 A3019 RMK A01 T00221026  RH  070%=      5-min Rain = 0
KFR1 110553Z 22010KT 02/M03 A3019 RMK A01 T00221027  RH  070%=      5-min Rain = 0
KFR1 110554Z 22010KT 02/M03 A3019 RMK A01 T00221027  RH  070%=      5-min Rain = 0
KFR1 110555Z 22011KT 02/M03 A3019 RMK A01 T00221027  RH  070%=      5-min Rain = 0
KFR1 110556Z 22009KT 02/M03 A3019 RMK A01 T00211028  RH  070%=      5-min Rain = 0
KFR1 110557Z 22009KT 02/M03 A3019 RMK A01 T00201028  RH  070%=      5-min Rain = 0
KFR1 110558Z 21010KT 02/M03 A3019 RMK A01 T00181029  RH  071%=      5-min Rain = 0
KFR1 110559Z 21010KT 02/M03 A3019 RMK A01 T00171028  RH  072%=      5-min Rain = 0

Page generated in 0.0326 seconds.